GFSFLT1_250_spd_003.txt.gz
Wind_Speed
39 38 40 42 39 37 33 29 29 32 35 40 39 40 42 45 46 49 53 54 56 60 61 66 63 60 55 60 51 46 42 36 36
39 40 36 32 36 31 26 27 30 34 38 38 39 40 45 46 48 52 54 57 59 64 65 65 64 64 62 64 64 63 51 44 42
38 35 32 32 31 25 24 28 32 36 37 38 41 43 46 48 49 53 54 57 59 62 65 64 65 62 64 65 66 67 65 58 57
33 31 31 28 23 24 25 30 34 36 39 42 44 47 48 48 51 52 55 57 59 62 63 64 67 64 64 64 66 67 67 65 64
30 29 25 22 23 24 27 31 34 36 40 44 46 47 47 49 52 52 55 56 58 60 61 65 64 66 65 67 68 68 68 66 65
26 22 24 25 24 26 30 31 35 38 42 45 46 46 49 51 52 53 56 57 58 61 59 64 66 65 66 67 67 68 69 68 66
20 21 22 26 27 29 31 34 37 42 45 47 48 48 52 53 54 56 58 58 60 61 60 62 64 67 66 65 67 73 72 72 68
18 23 26 27 28 31 34 37 40 47 48 49 50 51 53 55 58 56 57 60 62 63 64 62 63 67 64 63 65 70 73 76 71
22 25 27 28 32 34 38 42 44 49 50 49 51 52 54 54 56 59 59 61 63 65 66 63 64 67 68 67 69 69 72 73 74
26 29 31 34 37 40 43 44 46 48 51 52 53 51 53 54 57 62 59 61 65 66 66 69 66 67 69 72 72 71 71 74 72
32 34 35 37 37 41 45 46 48 52 55 57 58 54 56 56 57 61 64 65 67 70 69 69 70 72 74 72 74 76 75 73 72
36 37 40 44 46 46 49 50 53 56 59 63 62 61 61 61 62 64 67 69 70 72 72 71 74 74 74 73 73 73 75 77 73
40 42 45 49 51 51 52 53 55 58 59 62 63 64 65 66 67 68 71 71 71 75 73 75 77 77 78 76 76 75 76 79 75
46 49 51 55 56 55 54 55 59 63 61 63 65 67 73 73 71 75 73 74 74 76 76 79 78 79 83 78 77 79 81 80 78
50 50 52 47 52 54 54 58 60 63 68 69 71 74 77 76 78 81 80 81 81 80 81 80 81 79 81 76 80 82 83 79 76
49 53 53 54 58 59 61 64 68 70 73 76 79 82 83 83 84 85 84 84 83 81 81 81 79 83 86 84 82 84 84 83 75
52 55 58 59 61 61 65 70 68 78 78 80 79 81 83 86 90 93 92 93 93 89 86 84 81 79 77 80 85 85 82 82 77
59 62 65 65 67 69 72 75 79 81 81 79 84 82 82 85 89 89 90 89 90 92 90 84 80 76 78 82 85 84 79 82 80
64 66 69 71 75 80 79 81 84 81 81 81 80 81 81 80 81 88 91 92 90 89 89 88 84 79 80 81 84 81 83 83 91
68 71 74 78 81 84 84 82 81 81 82 80 80 81 85 85 87 85 91 92 95 94 84 83 83 86 88 85 80 79 81 86 80

GFSFLT1_250_spd_006.txt.gz
Wind_Speed
38 40 41 44 46 48 45 41 34 28 28 31 33 34 36 38 42 43 45 47 49 50 53 55 60 60 60 62 61 63 63 61 62
40 41 44 45 46 46 45 32 26 26 30 32 34 36 39 40 41 43 44 46 50 52 55 58 60 60 61 62 64 63 66 67 69
42 44 46 45 44 41 36 26 27 28 31 31 35 38 41 39 40 43 44 45 50 53 54 59 59 60 60 62 65 65 66 68 70
42 45 44 43 38 31 25 24 25 29 30 33 37 40 40 40 40 44 45 48 49 52 55 58 57 61 60 63 64 63 66 67 70
44 41 42 37 25 22 22 25 27 28 32 35 40 41 41 41 42 45 48 49 52 53 54 57 56 59 60 63 64 66 68 66 68
40 40 30 21 20 23 26 27 28 31 34 38 41 42 43 45 47 47 49 51 52 56 58 58 57 59 60 62 61 66 69 66 69
29 20 18 20 24 25 28 31 35 36 38 41 44 46 48 49 50 51 52 53 55 59 59 62 63 62 64 64 61 67 70 67 70
22 19 22 23 26 28 31 32 35 39 42 44 44 48 49 52 54 55 55 56 57 62 61 65 65 64 67 64 63 66 66 71 70
22 23 25 27 29 29 32 36 39 41 42 45 47 52 52 55 61 63 63 61 63 66 65 67 67 66 69 69 68 70 69 70 71
22 26 29 32 31 34 37 42 44 47 48 51 53 56 59 63 62 63 63 65 67 70 70 74 75 73 72 73 73 74 71 72 69
28 31 34 36 38 43 47 50 53 55 56 56 57 61 63 66 62 68 69 71 75 76 77 79 79 77 74 74 72 71 72 72 70
34 37 41 43 46 49 51 53 56 52 54 56 56 60 62 68 69 72 74 76 78 76 75 76 79 81 81 79 76 71 73 70 69
39 42 45 48 51 53 54 54 54 57 58 59 61 65 67 69 74 74 75 73 78 80 81 83 85 85 84 82 81 80 70 68 70
43 45 48 48 49 52 54 55 56 58 61 62 65 68 74 75 75 76 73 77 77 77 76 78 79 80 82 83 81 80 77 73 66
46 47 46 50 53 54 60 62 64 66 66 70 73 75 78 79 77 72 72 69 71 74 77 79 81 84 84 87 86 80 77 76 72
43 47 53 55 56 59 63 67 69 72 76 78 78 76 75 79 68 68 68 74 76 77 78 81 84 88 85 91 89 81 77 75 74
47 51 56 60 59 63 65 67 70 73 78 80 80 77 74 71 70 69 73 78 79 79 83 83 84 87 93 92 89 83 71 72 72
53 59 62 61 64 68 72 75 79 80 84 85 80 74 63 65 72 73 77 78 81 83 84 85 88 90 94 94 91 81 67 65 70
60 62 62 64 67 72 76 77 82 85 90 87 74 65 67 71 68 71 76 78 82 86 89 89 92 95 95 95 92 77 67 68 71
70 69 71 73 76 79 81 84 86 89 88 78 66 66 72 73 71 69 75 78 82 87 89 94 96 98 97 97 91 76 67 68 74

GFSFLT1_250_spd_009.txt.gz
Wind_Speed
39 41 42 43 44 46 48 49 48 44 41 32 29 27 28 31 34 35 35 36 37 40 44 46 49 51 53 53 54 54 59 60 61
39 40 42 44 45 47 47 46 46 41 32 29 27 27 31 35 37 38 38 39 40 43 44 47 47 50 53 52 53 58 57 59 61
41 42 43 46 47 46 43 41 34 26 28 30 27 30 34 37 40 40 40 41 42 45 46 48 50 53 53 55 57 59 61 59 59
43 44 45 47 47 42 38 24 24 26 29 30 31 34 36 38 40 41 42 43 45 49 51 51 54 56 57 56 56 58 62 64 61
44 45 45 44 41 32 23 25 28 29 29 32 34 37 38 42 45 47 46 46 50 52 54 55 55 59 62 63 60 60 64 65 66
43 43 40 38 23 24 25 28 28 29 32 34 38 41 43 45 47 49 48 50 55 58 59 57 60 63 68 66 66 69 66 66 66
42 39 35 26 27 26 28 30 30 31 34 38 43 45 46 49 52 53 55 59 61 62 60 64 66 68 70 70 70 70 68 67 66
37 34 28 28 28 29 30 31 32 34 38 42 44 48 51 52 57 58 60 63 61 64 66 69 71 70 70 71 71 71 73 75 75
35 29 27 28 28 30 32 34 37 40 44 47 50 53 54 57 58 59 60 63 66 67 70 73 73 73 74 75 74 74 72 69 68
28 28 29 31 34 35 38 40 44 47 50 52 55 52 58 57 61 63 65 68 71 74 72 72 75 70 66 65 65 68 72 73 72
27 30 32 34 38 42 44 46 49 51 51 51 54 57 61 62 64 65 69 72 73 74 73 70 66 63 64 65 66 70 72 70 73
30 33 36 40 43 45 46 47 48 50 53 52 55 60 62 66 67 70 75 75 73 72 71 61 61 66 66 69 70 70 72 72 75
35 38 42 45 46 48 48 46 49 53 54 59 60 65 68 71 72 76 76 78 77 72 63 61 61 65 66 68 70 72 74 77 78
41 45 48 48 50 48 48 52 56 58 58 60 65 67 71 74 76 80 81 77 72 63 60 61 65 66 68 69 71 72 77 80 83
45 47 48 49 49 52 54 56 60 62 62 63 67 73 75 79 83 82 77 70 62 62 61 63 67 68 70 71 73 76 80 83 84
45 46 48 50 52 56 58 62 65 66 68 70 75 76 82 84 86 83 71 66 60 61 63 65 66 70 71 75 78 80 82 83 85
49 51 54 56 57 62 64 69 70 74 77 79 79 80 82 85 88 81 65 60 62 64 66 66 67 69 73 80 81 83 87 87 88
54 57 59 58 61 65 70 73 75 76 80 83 83 80 77 83 86 74 66 62 63 69 70 68 70 72 75 78 82 85 87 90 91
60 60 63 64 63 67 70 73 76 79 79 82 83 83 84 84 81 78 71 66 69 70 70 71 74 75 76 82 86 89 90 93 94
66 68 67 64 66 69 72 76 79 82 81 83 86 87 88 90 89 74 73 70 72 72 72 75 74 75 78 82 86 89 92 95 97

GFSFLT1_250_spd_012.txt.gz
Wind_Speed
38 39 43 42 42 45 47 47 49 49 50 47 43 38 38 40 38 38 39 41 43 45 46 43 45 46 49 52 52 54 58 60 62
38 39 40 41 43 46 47 48 48 47 45 44 36 34 37 38 38 38 39 41 43 44 44 44 46 47 50 52 56 60 61 62 62
38 40 42 44 46 48 48 48 46 43 39 36 35 35 36 39 41 42 41 43 46 46 46 47 52 54 55 56 61 62 65 65 66
41 41 43 46 48 48 48 45 42 36 34 33 35 36 38 40 40 43 45 47 50 53 53 52 56 58 57 61 66 69 68 71 68
41 43 44 44 45 46 44 38 33 30 32 33 37 37 39 42 43 46 48 51 51 57 56 55 59 61 63 65 69 69 72 66 66
42 41 42 42 45 43 37 33 31 33 34 36 37 39 41 43 45 47 51 53 57 58 57 60 62 65 67 70 71 69 71 65 58
43 41 42 44 42 40 34 34 35 35 36 37 40 43 46 47 50 53 53 58 59 60 61 62 65 68 70 73 70 68 61 57 58
41 43 44 40 39 35 34 35 36 38 38 40 44 47 49 52 54 57 56 59 63 62 66 67 72 74 71 71 69 61 55 58 58
43 41 39 38 34 34 37 38 39 40 42 44 46 49 52 55 56 58 60 63 67 71 72 73 76 76 71 68 63 56 57 56 57
39 38 32 29 33 37 37 39 41 43 45 49 50 51 55 58 60 63 65 71 73 72 71 72 75 74 70 62 58 56 57 57 58
37 32 32 33 36 38 40 42 44 46 47 48 51 55 56 59 62 65 67 70 73 76 79 81 77 72 64 57 55 55 59 58 59
34 35 36 38 40 42 45 47 50 49 49 49 52 57 62 66 67 66 70 75 77 80 78 79 75 69 61 57 55 57 59 59 59
35 37 40 43 46 49 51 52 51 52 50 54 58 61 64 65 68 73 77 78 78 78 79 77 71 66 61 57 58 59 60 61 64
38 41 44 47 50 52 53 53 51 53 57 57 61 64 67 70 73 76 77 78 78 78 78 76 69 63 60 60 60 59 61 62 66
41 45 47 48 50 54 55 56 58 60 61 63 65 68 69 73 74 77 77 79 78 79 78 79 74 69 63 62 64 61 63 64 65
46 49 52 52 52 55 59 61 64 67 64 65 67 67 71 76 78 76 80 81 78 80 82 80 76 74 70 67 66 65 67 67 66
53 55 56 57 59 60 63 65 67 70 73 68 71 69 75 81 82 85 85 88 87 89 85 84 82 77 73 71 68 68 70 70 70
59 61 62 63 66 67 70 71 73 74 76 76 78 80 79 82 87 88 91 92 93 90 92 91 85 78 78 74 74 74 74 72 74
64 64 65 70 73 75 75 75 77 79 79 83 89 91 89 86 84 92 96 96 95 92 93 88 86 83 82 78 76 78 78 77 78
69 71 73 75 77 80 79 82 81 84 85 90 95 94 94 95 95 95 98 101 99 98 99 96 90 85 84 82 80 81 82 81 83

GFSFLT1_250_spd_015.txt.gz
Wind_Speed
34 34 34 39 40 41 44 44 45 47 49 49 51 53 52 45 40 38 41 41 43 44 42 45 47 48 51 52 54 58 60 61 66
37 36 38 39 42 43 43 45 47 49 52 51 51 48 42 36 35 37 39 41 43 43 45 49 51 51 56 54 58 59 62 66 67
34 37 39 42 43 42 44 47 48 49 48 48 43 36 35 35 38 38 41 44 46 47 49 51 51 56 59 58 61 62 65 69 71
34 37 40 43 44 44 46 47 45 44 45 39 34 33 36 37 40 41 44 45 47 48 52 54 56 59 61 62 67 67 70 73 72
39 38 40 45 45 45 46 45 44 42 38 35 34 36 38 39 40 44 45 47 50 53 56 57 59 62 62 66 66 68 73 73 71
40 43 44 45 45 44 44 44 41 38 36 36 38 39 39 40 42 43 47 50 53 56 57 58 61 64 65 66 67 70 73 72 72
46 44 46 44 44 43 43 41 38 36 36 38 39 41 43 42 46 46 48 51 54 57 60 63 63 66 68 68 70 70 71 71 66
45 45 45 44 44 44 40 39 34 35 39 40 42 43 44 46 49 50 52 54 56 59 62 63 64 69 73 72 70 71 71 69 60
42 43 44 45 42 40 36 33 33 37 40 41 44 46 48 50 51 53 57 59 61 63 64 66 70 72 71 70 67 67 68 63 60
42 45 47 43 40 34 33 34 36 40 43 45 47 49 50 53 54 57 60 62 64 69 69 71 72 72 71 70 68 70 68 64 58
47 48 43 42 37 36 37 39 42 45 48 49 51 52 52 54 56 61 64 67 70 70 69 69 72 72 70 67 69 72 72 68 60
49 46 44 39 39 40 42 44 47 51 52 54 54 53 55 57 61 65 67 71 71 70 72 73 73 76 77 78 78 74 72 74 68
47 45 41 40 42 44 47 50 52 54 55 54 54 55 58 63 67 69 72 73 72 73 76 79 79 80 79 81 80 77 75 75 71
46 44 43 44 47 49 51 54 54 56 56 55 57 61 64 68 70 71 77 74 75 79 82 82 83 83 83 84 83 80 81 77 73
46 48 47 48 51 54 55 58 61 62 62 61 63 65 69 73 75 77 78 79 81 84 86 86 86 86 87 87 86 85 83 81 79
49 50 53 55 56 58 60 62 64 67 70 68 71 71 75 77 80 80 81 85 87 89 92 91 91 92 93 93 91 92 92 90 83
52 54 56 59 61 65 68 68 68 68 74 76 76 77 79 83 85 85 87 88 90 94 96 96 95 94 97 98 99 101 97 96 94
58 60 62 65 67 71 73 74 75 75 79 81 84 84 83 82 86 93 96 97 98 100 100 100 100 99 102 102 105 107 105 101 99
63 66 67 70 73 76 79 82 83 85 86 90 92 93 92 89 90 92 99 105 104 105 104 104 103 108 108 106 108 110 109 105 95
67 69 72 76 80 83 85 89 91 93 94 97 97 97 99 101 101 97 99 103 108 108 107 111 113 115 113 112 110 111 105 100 91

GFSFLT1_250_spd_018.txt.gz
Wind_Speed
34 35 36 40 39 37 39 40 40 42 43 43 46 48 47 48 47 38 32 33 34 37 40 43 46 46 48 50 51 52 56 57 60
34 36 36 38 39 42 43 43 43 42 42 43 44 44 45 41 32 31 32 35 37 39 42 44 45 48 49 50 53 54 57 59 61
36 34 36 38 39 40 41 42 44 43 45 43 42 42 38 32 31 33 34 37 39 41 43 43 44 46 50 52 54 55 58 62 64
37 38 36 38 37 39 40 41 41 42 42 41 41 39 32 32 33 35 37 39 41 42 42 42 45 49 53 54 56 58 60 63 64
39 33 35 40 40 43 41 41 39 39 40 39 39 33 32 35 36 37 39 41 41 43 42 45 48 49 53 55 57 60 62 61 61
38 39 40 44 44 45 43 42 41 42 40 39 35 31 35 36 38 40 42 42 44 44 45 48 51 52 56 57 57 59 61 61 61
42 43 45 45 46 45 44 45 45 43 40 39 33 34 37 41 41 42 43 44 46 47 49 53 55 56 59 59 58 59 59 58 61
41 42 45 46 48 44 44 46 45 43 40 35 34 36 40 42 44 46 47 48 50 51 54 57 58 59 62 60 61 61 63 64 64
39 42 45 48 46 46 48 45 42 37 35 35 37 39 43 46 49 51 53 53 54 55 60 63 64 65 64 63 64 67 68 69 67
41 45 48 49 48 48 46 43 39 38 38 39 41 44 48 50 54 56 55 55 56 59 63 66 67 69 69 67 68 71 72 71 71
44 46 50 50 49 50 47 44 41 42 42 43 46 49 52 56 58 58 58 58 62 64 67 69 68 72 71 72 72 75 76 76 76
46 50 51 51 54 51 47 44 44 45 46 48 51 54 57 58 59 58 60 63 65 68 72 73 73 75 76 79 79 80 81 81 81
50 51 53 53 55 54 50 47 47 49 51 52 55 57 59 61 63 65 66 68 71 74 74 75 76 79 80 80 82 84 86 86 86
49 52 55 56 56 56 54 52 53 55 57 56 58 61 63 66 69 72 74 75 78 79 81 81 82 82 83 85 85 85 88 89 89
51 54 56 60 58 58 57 58 59 60 63 63 65 67 70 73 75 75 76 79 82 83 84 86 87 87 88 91 92 93 94 94 91
54 56 59 60 59 60 61 62 64 67 69 68 70 72 77 80 82 84 85 86 89 89 91 92 91 91 95 95 97 97 98 96 93
57 59 62 60 61 64 67 69 70 73 77 78 78 77 81 85 88 92 94 95 97 98 99 98 99 101 100 101 102 102 102 103 100
61 62 61 61 64 68 72 73 76 77 81 85 87 87 85 88 91 94 97 100 101 103 104 105 106 107 108 108 108 107 106 105 104
58 58 61 65 68 72 75 77 80 83 85 91 95 97 97 97 92 93 96 99 102 108 111 111 112 112 111 110 109 111 114 111 113
62 65 68 70 73 77 81 85 89 91 93 96 99 102 105 107 108 102 104 105 105 108 113 114 116 118 120 118 117 118 121 121 119

GFSFLT1_250_spd_021.txt.gz
Wind_Speed
32 30 33 31 33 36 37 37 38 40 43 43 41 40 42 43 43 41 42 37 30 30 32 33 36 37 40 38 36 40 38 40 42
25 32 32 32 33 34 35 37 37 37 37 38 39 39 39 41 42 41 35 30 29 32 33 35 37 40 40 37 40 41 42 42 41
33 33 32 36 35 35 39 36 37 37 36 37 38 38 39 41 41 34 30 29 31 33 34 37 40 41 40 39 42 44 45 44 45
33 38 38 38 37 37 38 39 39 41 39 37 38 39 39 39 38 32 31 32 34 35 37 40 42 41 40 41 45 47 47 46 47
34 39 38 38 38 38 38 41 45 42 43 41 41 41 40 38 36 35 34 36 36 38 40 42 43 43 43 45 47 49 51 50 50
35 34 35 38 42 44 43 47 45 46 41 42 44 44 41 39 37 36 36 38 40 40 42 44 45 46 47 48 51 56 55 55 55
37 39 41 42 44 46 45 45 47 44 44 47 46 44 41 39 37 37 38 41 42 44 47 47 47 48 50 52 55 58 59 59 59
37 39 40 40 41 41 46 49 47 46 47 45 43 42 38 37 38 39 41 44 47 49 51 51 50 50 53 55 58 60 61 61 61
35 35 39 41 39 44 48 49 49 48 49 46 42 39 39 39 42 45 46 50 52 54 56 54 53 55 57 59 61 64 64 66 66
45 45 45 44 44 48 49 50 52 50 49 46 42 40 41 43 47 50 52 55 58 59 58 58 58 59 60 63 65 66 68 69 70
43 46 48 47 48 51 53 54 54 54 48 44 42 43 45 47 49 52 56 57 58 60 63 63 64 66 67 70 72 72 72 72 74
47 48 50 52 50 53 57 57 56 56 53 50 47 48 50 52 54 55 58 61 62 64 67 69 72 74 75 77 77 77 77 78 78
49 53 54 55 58 56 56 57 57 58 57 55 54 56 57 59 61 63 64 66 69 71 73 74 76 78 79 80 80 80 83 84 84
51 54 56 55 56 56 56 58 58 62 60 57 60 62 64 66 68 71 72 73 75 77 79 82 82 82 84 85 86 86 87 87 87
45 48 52 54 56 58 59 61 62 62 60 59 63 65 70 73 76 78 79 81 83 84 86 87 89 90 90 90 90 90 91 92 93
46 49 53 57 60 61 61 64 65 63 62 63 65 69 73 76 78 82 85 88 91 91 93 94 96 96 98 98 99 98 99 99 101
50 54 56 59 62 64 65 63 63 66 70 71 73 74 77 81 83 86 89 92 95 98 101 102 103 104 105 106 108 108 108 108 107
54 55 55 55 57 60 63 65 67 70 75 79 80 80 82 83 87 91 94 98 102 103 107 110 112 115 114 114 114 115 115 115 114
50 53 57 59 62 64 68 70 73 76 78 83 89 91 93 93 89 95 99 102 105 108 112 114 117 120 122 122 122 123 124 123 124
56 60 62 65 67 70 73 76 79 81 84 88 92 97 101 106 107 101 106 109 113 115 117 119 120 124 129 130 129 128 128 128 129

GFSFLT1_250_spd_027.txt.gz
Wind_Speed
51 50 50 47 45 42 38 36 34 35 35 36 38 36 36 39 38 40 43 45 44 43 44 43 42 42 39 36 33 33 35 36 38
51 51 46 43 42 38 34 32 36 39 43 45 41 36 39 41 41 44 45 44 42 43 42 43 41 39 38 35 34 36 37 40 41
50 47 41 39 40 37 32 33 39 42 44 40 40 38 38 39 44 42 43 43 43 44 43 42 41 40 36 35 36 37 40 41 43
48 42 37 37 36 32 32 33 42 49 43 45 41 42 41 43 44 43 45 46 48 46 44 42 41 41 38 38 39 40 42 42 43
43 39 36 36 35 33 39 41 40 42 46 47 48 43 45 43 44 44 46 49 50 47 44 42 43 43 42 41 42 44 46 46 49
39 36 36 36 38 39 39 42 47 48 48 47 45 47 46 46 47 47 47 50 49 47 45 42 44 47 45 46 47 48 50 52 53
36 34 36 39 37 41 40 37 42 46 45 48 50 45 43 47 48 49 50 51 47 45 42 41 43 46 49 50 52 53 54 55 57
35 34 36 36 39 41 40 40 40 44 46 49 42 44 46 51 53 53 53 52 46 43 43 43 45 47 50 53 55 56 58 60 61
33 34 37 40 47 50 48 48 50 47 49 47 46 50 53 55 55 57 55 53 49 46 45 48 49 51 54 56 59 60 62 61 61
33 35 38 42 44 45 47 50 51 52 54 55 56 58 58 59 59 60 58 57 55 52 52 52 53 54 56 58 60 62 63 64 65
34 35 38 44 46 48 51 55 56 57 57 57 54 57 60 63 63 61 60 60 61 59 56 57 59 60 61 63 65 67 69 71 73
35 37 37 44 47 51 53 59 57 61 61 62 63 66 68 68 68 61 63 64 65 65 63 60 62 65 67 68 69 71 73 75 77
35 40 42 46 50 50 51 55 61 65 66 70 71 70 70 65 63 65 68 68 67 67 68 65 65 67 69 72 74 77 79 81 82
37 40 44 46 51 53 55 57 57 61 63 66 64 62 63 65 69 70 70 69 66 66 67 68 71 73 75 76 78 81 84 86 88
37 40 41 44 46 49 51 54 53 52 53 56 60 64 67 69 68 66 67 69 69 70 73 75 77 80 83 86 87 88 89 92 95
37 38 39 40 42 43 45 48 53 57 60 62 65 66 65 67 68 69 70 72 74 77 79 81 83 86 89 90 95 98 100 100 100
41 40 42 43 45 49 52 55 59 63 66 66 64 64 69 72 73 74 75 76 79 82 85 88 91 93 96 99 103 106 109 110 111
46 47 49 51 53 55 59 61 63 64 68 68 69 71 72 72 77 79 81 85 87 91 94 98 102 105 107 109 111 114 116 118 118
45 48 50 52 55 58 60 62 64 66 69 73 77 79 80 79 76 81 86 90 95 97 101 105 108 112 114 115 116 118 117 117 119
47 50 53 56 59 63 66 68 71 73 76 78 81 83 86 89 88 84 89 93 100 103 107 111 112 115 117 118 119 120 122 123 122

GFSFLT1_250_spd_030.txt.gz
Wind_Speed
57 56 55 56 55 54 54 52 51 47 42 38 38 38 40 38 39 39 38 41 42 44 43 42 42 42 43 42 42 39 37 35 33
60 57 57 56 53 53 52 50 49 44 39 37 37 42 42 44 45 40 41 41 42 45 42 41 41 44 45 42 40 40 36 35 35
61 59 57 53 51 51 50 47 44 40 34 34 39 41 43 44 43 40 40 43 45 45 43 45 45 45 45 42 39 39 39 38 39
57 55 55 51 51 49 47 43 40 36 36 32 38 42 46 45 45 47 42 44 45 44 45 46 46 45 44 43 41 42 43 42 43
52 49 47 49 49 46 43 39 37 33 31 39 45 47 49 47 48 44 44 42 47 50 48 47 48 47 44 43 43 45 46 46 47
42 43 45 48 45 41 38 36 36 36 37 45 47 47 49 51 48 51 48 48 50 50 50 49 49 48 45 43 45 48 50 51 51
38 42 44 43 39 38 38 38 42 41 39 40 41 46 50 50 49 50 47 45 47 51 52 52 48 47 46 45 44 48 52 54 56
39 41 42 40 38 38 38 39 45 49 42 40 40 45 48 50 48 48 49 52 53 55 54 54 50 48 47 47 48 50 53 57 60
40 40 39 39 37 38 38 40 41 47 47 48 45 49 54 51 51 53 57 59 62 59 60 60 56 54 52 51 52 53 56 59 62
40 40 39 39 37 38 40 45 47 51 52 56 54 53 55 57 60 59 57 63 64 63 64 66 61 59 59 58 55 58 60 61 63
40 41 40 39 38 39 40 43 46 47 51 58 61 61 62 63 64 63 65 66 68 71 70 63 62 63 66 63 61 61 63 67 68
40 42 41 41 40 40 43 47 50 50 54 58 63 66 68 70 71 71 73 74 76 74 65 66 68 69 67 67 67 65 65 66 68
35 39 42 42 43 42 44 45 51 56 58 59 58 66 72 75 75 76 75 69 65 67 69 72 73 71 69 68 67 69 71 72 73
34 35 39 42 43 44 47 50 51 52 55 58 60 63 63 64 63 63 63 66 69 71 73 71 71 73 74 74 74 76 77 79 81
36 37 37 39 41 42 43 46 47 49 52 55 56 59 60 60 61 65 69 72 73 72 73 75 76 78 79 81 83 84 85 87 88
38 42 43 43 43 44 44 46 48 50 50 52 56 59 63 66 69 71 72 75 74 77 80 82 84 85 87 88 89 91 92 94 94
40 42 43 44 46 48 50 51 53 56 58 59 60 63 70 71 73 74 74 76 79 83 85 87 90 91 93 94 97 98 100 102 104
42 43 46 47 47 50 52 55 57 60 64 64 63 65 68 71 74 78 82 84 86 89 91 93 96 99 100 102 104 106 108 109 111
46 47 48 49 50 53 55 58 60 62 66 70 73 74 74 75 72 78 83 88 93 96 97 98 100 102 106 108 110 113 116 117 121
50 51 52 53 55 57 59 61 62 64 67 69 73 78 82 84 83 78 82 87 90 94 99 104 107 110 113 116 119 121 119 119 119

GFSFLT1_250_spd_033.txt.gz
Wind_Speed
55 59 61 64 64 64 62 60 59 58 57 60 60 57 51 47 48 45 43 41 43 42 43 42 43 43 43 43 42 44 45 44 43
61 64 65 66 68 67 64 60 58 57 58 58 59 53 47 45 42 45 44 44 45 46 42 42 44 45 44 46 45 45 46 44 42
66 70 69 69 68 63 59 56 55 56 56 56 52 45 43 45 46 47 50 47 48 47 44 44 45 44 45 45 46 45 45 45 43
70 71 68 62 58 54 52 50 52 54 54 53 46 43 42 42 47 48 44 50 49 51 53 46 45 47 48 49 47 46 46 46 46
71 64 58 52 49 47 47 48 51 52 51 47 44 44 43 39 40 44 49 58 51 52 48 48 49 49 51 49 49 47 45 45 48
58 53 47 47 45 46 47 48 50 49 48 44 45 45 45 44 45 53 52 52 52 53 54 54 50 50 48 51 50 48 46 45 46
50 44 44 45 46 46 46 48 48 48 46 44 45 43 44 47 51 52 53 51 53 54 55 54 52 53 54 56 52 51 49 47 49
42 41 43 44 45 46 46 46 46 47 45 46 47 46 47 51 50 47 51 53 55 56 54 53 58 59 61 63 58 57 56 52 50
40 43 43 45 44 45 46 45 44 44 44 44 51 54 53 53 53 49 53 55 59 58 57 59 59 60 64 62 64 64 62 57 57
41 42 43 41 41 44 45 44 44 44 46 47 49 54 57 58 58 60 58 59 59 61 65 66 67 67 70 71 73 70 63 62 64
43 44 42 40 40 40 43 45 44 45 46 48 52 56 59 61 63 67 69 70 71 72 74 72 73 75 78 78 72 67 67 68 69
42 43 41 40 40 39 39 42 43 45 46 49 51 54 58 60 64 69 71 75 78 78 79 81 80 80 82 71 69 70 72 74 74
41 39 41 41 40 39 39 39 41 44 47 48 52 58 61 63 65 67 69 73 79 82 83 82 80 74 71 72 75 78 78 74 74
40 39 40 41 40 41 41 40 40 41 44 48 52 55 58 60 63 65 66 67 68 70 71 71 72 75 77 79 80 80 78 80 81
41 39 39 39 39 39 41 42 42 43 45 46 50 53 56 56 60 62 64 66 68 70 73 76 78 80 81 83 83 82 85 87 88
39 40 40 42 42 42 43 44 46 44 46 48 52 55 58 59 62 65 68 70 72 76 78 80 82 84 84 85 88 90 92 93 95
41 44 45 47 48 49 49 50 50 51 50 51 52 56 62 62 65 68 71 73 76 79 81 83 86 89 90 93 96 96 97 99 100
43 45 47 49 50 52 52 52 55 58 60 58 59 60 62 65 70 74 78 80 82 85 88 91 94 95 97 100 101 104 104 104 104
42 44 46 48 50 52 55 56 58 59 62 64 63 65 65 68 67 74 81 84 86 89 92 94 96 98 100 103 105 106 108 109 110
49 51 53 55 56 58 59 60 62 63 64 66 70 73 75 75 73 73 80 85 90 93 95 98 101 104 105 106 109 112 114 114 114

GFSFLT1_250_spd_036.txt.gz
Wind_Speed
51 56 58 61 64 64 69 69 70 71 68 66 65 62 59 60 63 63 63 60 58 57 53 46 45 45 45 43 44 46 46 45 47
56 57 57 61 65 69 71 72 75 73 69 66 61 59 59 60 63 63 61 57 56 52 46 44 45 50 48 48 46 46 43 45 48
62 63 68 69 68 71 73 75 73 66 60 58 57 58 58 59 61 61 57 54 51 49 49 48 49 51 52 51 47 45 46 49 50
70 72 72 72 72 73 70 64 59 56 55 55 55 55 57 58 58 56 51 50 49 48 50 49 51 54 54 56 50 48 49 52 50
72 70 69 70 71 65 61 55 50 52 54 52 54 54 56 57 55 52 50 48 42 45 47 49 52 59 52 54 55 52 53 52 49
66 67 68 64 61 56 51 49 52 51 53 53 54 54 54 54 52 51 50 50 43 44 47 53 56 56 56 55 56 56 56 53 53
68 64 62 59 52 47 47 48 50 51 53 54 54 52 52 52 51 51 51 51 49 51 55 57 56 57 57 57 60 60 57 57 58
63 61 60 48 45 48 49 50 49 50 49 50 51 51 51 51 52 52 51 51 53 55 56 56 56 57 58 60 59 58 60 59 60
60 58 46 43 46 48 48 49 48 48 48 47 49 49 51 51 53 56 56 56 56 57 60 57 57 60 63 63 63 63 65 67 68
55 49 45 46 47 48 49 48 47 48 47 47 48 49 50 52 53 57 62 63 61 62 63 65 65 64 65 66 71 72 72 71 72
52 45 47 48 48 47 46 45 45 46 46 46 47 48 49 52 55 58 64 67 70 68 69 71 74 77 77 79 79 80 80 82 81
47 44 47 46 45 45 45 44 44 45 45 46 47 47 48 50 53 58 62 66 71 76 77 78 79 80 84 86 86 85 87 89 88
44 45 47 46 44 44 44 43 42 42 42 44 46 48 47 47 50 55 58 62 66 72 74 77 78 81 83 85 84 83 85 85 83
46 46 47 47 45 44 42 43 44 46 45 45 46 47 47 50 52 53 55 58 61 65 69 73 76 77 79 81 81 81 80 81 82
47 45 44 46 44 45 47 47 48 50 52 53 54 54 53 53 54 57 58 61 63 65 69 72 75 76 78 80 83 84 85 86 87
46 45 48 45 45 47 48 49 50 50 52 54 57 59 60 62 63 65 66 67 69 71 72 74 77 80 82 84 86 87 89 89 90
43 45 45 46 45 46 47 49 50 50 50 53 56 61 66 66 67 70 74 74 77 79 81 83 85 88 90 92 94 95 96 97 98
40 41 41 43 45 47 48 51 54 57 57 58 60 61 64 67 74 76 80 80 82 84 87 90 92 94 96 97 99 101 103 105 106
42 43 45 47 48 50 52 54 57 61 63 65 66 67 67 68 68 80 85 87 89 91 94 97 99 101 103 104 106 108 108 110 112
44 47 50 52 54 57 60 61 63 66 69 72 74 76 77 77 74 72 81 88 92 95 97 101 104 106 107 109 111 113 115 116 117

GFSFLT1_250_spd_039.txt.gz
Wind_Speed
44 45 48 52 57 61 63 66 69 73 73 72 73 75 76 79 76 72 68 65 63 62 62 62 62 60 57 56 48 45 42 46 47
45 48 54 63 65 69 73 77 77 75 75 76 76 75 72 69 65 62 62 61 60 60 60 59 59 58 58 54 50 46 49 49 51
51 57 61 66 69 69 70 70 70 71 75 73 68 66 62 59 59 58 59 59 58 58 59 58 56 56 56 51 46 49 52 52 54
59 59 65 69 63 66 68 70 70 72 69 65 61 58 57 55 56 57 56 56 56 56 57 56 55 52 52 48 49 50 50 52 56
60 67 70 71 66 69 71 68 69 68 61 53 53 53 54 53 54 56 56 56 55 55 54 53 51 47 46 48 50 51 49 53 56
66 72 72 71 68 72 71 69 65 56 52 51 52 52 53 53 55 55 56 56 53 53 52 52 49 48 50 52 50 52 56 57 59
70 71 69 64 70 73 70 64 55 52 51 51 53 54 54 53 52 52 53 53 52 53 53 54 53 53 50 52 54 57 57 57 59
70 72 69 68 70 73 65 59 53 52 53 53 54 52 52 52 50 50 51 51 52 53 53 55 57 59 58 57 58 58 58 59 60
72 70 67 67 69 69 61 54 53 53 53 53 49 49 48 49 49 49 50 51 53 54 56 58 60 60 60 60 61 62 60 61 63
74 68 66 67 67 63 52 51 52 52 51 49 48 48 47 47 48 49 49 51 54 55 59 62 66 67 65 66 66 68 68 68 67
71 70 66 67 63 53 49 51 50 50 49 47 47 46 47 47 47 48 49 48 51 55 59 64 69 73 74 73 73 75 77 77 79
70 68 66 63 53 49 49 50 49 51 49 47 47 47 48 49 49 49 49 51 50 51 54 61 66 72 79 82 83 83 84 84 85
67 65 62 52 47 46 47 48 47 46 48 50 51 52 53 54 55 54 55 55 54 55 57 59 60 64 68 75 80 85 88 89 88
62 59 55 48 48 49 48 49 48 48 50 52 53 53 55 56 57 58 59 60 62 63 64 65 65 67 69 71 74 77 79 81 82
55 53 46 46 49 48 48 47 47 47 49 50 52 53 55 57 59 60 62 64 66 69 71 72 73 75 77 78 79 80 82 83 85
50 46 44 44 45 45 46 44 45 47 50 52 54 56 57 60 63 66 68 69 72 72 74 76 79 82 84 85 87 89 90 91 92
45 44 45 45 45 45 48 48 49 50 53 57 59 62 64 65 67 70 73 75 78 80 80 82 84 87 90 92 94 96 96 98 99
46 47 47 47 47 48 50 52 55 57 59 61 65 67 70 72 78 81 84 85 86 87 89 90 92 93 94 97 99 101 103 104 106
47 48 49 50 51 52 55 57 60 63 67 69 72 74 74 76 77 88 94 94 94 93 94 96 98 101 102 102 103 104 106 107 109
51 52 53 54 54 57 60 63 66 69 73 75 79 82 84 85 84 84 91 94 95 95 95 97 100 103 104 105 106 107 109 110 111

GFSFLT1_250_spd_042.txt.gz
Wind_Speed
49 49 51 51 46 47 53 57 62 66 68 69 68 70 67 67 71 71 70 68 65 62 62 62 63 62 59 57 57 58 57 56 54
54 54 53 49 55 57 60 62 68 71 65 66 70 67 71 70 67 65 65 62 59 59 57 57 58 59 59 57 57 56 56 55 53
54 53 55 60 61 60 62 65 72 72 67 70 75 74 72 67 60 55 52 53 54 53 54 55 55 55 56 57 56 55 55 53 52
57 58 59 60 59 60 65 70 70 69 69 72 76 74 67 56 52 49 49 49 49 50 51 53 54 55 55 55 54 54 54 52 48
50 54 54 59 63 67 69 73 71 70 71 73 73 70 60 51 50 50 51 52 52 52 53 54 56 56 55 53 52 52 49 46 49
59 60 60 60 66 68 70 71 71 70 70 71 71 62 54 53 53 53 50 49 50 51 51 52 54 54 53 52 52 51 50 49 49
61 60 63 66 67 71 73 71 71 70 70 70 62 55 52 52 52 50 48 47 46 46 47 48 50 51 52 51 52 52 52 53 50
64 64 68 67 71 74 71 70 72 70 70 62 54 51 52 52 49 49 48 46 45 45 45 46 49 50 52 54 54 56 57 56 57
66 68 70 73 76 74 70 71 71 69 65 52 48 47 49 49 46 45 46 46 47 46 46 46 47 49 52 54 56 60 62 63 62
71 73 73 75 73 72 69 70 68 66 57 50 46 46 45 46 45 46 46 47 48 48 49 49 50 50 50 53 59 63 65 67 70
73 75 71 70 69 68 68 68 65 60 48 45 44 45 45 46 47 48 49 50 51 52 52 53 53 54 53 54 54 60 67 69 75
70 71 69 69 66 66 64 65 62 56 50 45 46 47 48 48 50 51 52 53 54 54 56 57 58 58 59 60 60 60 60 65 75
70 69 67 67 66 66 60 61 57 49 46 47 47 48 48 49 50 52 53 54 55 57 58 59 61 62 64 66 66 68 68 69 69
68 64 65 65 66 61 56 54 46 46 47 49 49 50 52 53 55 56 57 59 60 61 62 64 66 68 69 71 73 74 75 76 77
63 63 63 64 60 54 50 48 47 48 50 51 52 53 55 57 60 61 63 65 68 70 72 73 74 74 76 76 78 80 82 83 83
62 61 61 56 52 49 49 48 48 50 52 55 55 56 59 62 65 69 72 73 75 77 79 82 84 85 87 88 89 89 89 89 90
57 55 51 50 48 49 50 51 51 54 56 58 60 63 65 66 70 74 77 79 82 85 87 89 91 93 95 98 98 97 97 97 97
49 47 48 48 48 49 53 55 57 58 61 62 64 67 71 73 82 87 87 86 91 94 96 100 101 102 103 104 104 103 102 100 100
44 45 47 49 50 53 55 60 63 64 65 67 70 73 74 77 79 91 96 98 103 105 109 112 109 106 102 100 99 99 99 99 100
44 46 48 51 54 57 59 62 67 71 72 75 77 79 82 85 84 85 95 103 108 112 112 105 102 102 102 102 102 102 103 103 104

GFSFLT1_250_spd_045.txt.gz
Wind_Speed
53 55 54 53 52 52 53 55 53 57 58 59 62 65 70 65 66 69 70 72 67 60 55 56 56 56 55 56 58 56 58 58 55
54 53 52 53 56 55 54 55 59 56 58 60 66 68 64 65 69 69 69 67 55 49 47 47 47 49 51 52 52 52 53 54 54
52 51 56 57 55 58 58 54 55 55 60 64 68 69 67 68 68 69 66 57 50 48 49 48 47 47 47 48 48 49 50 52 53
62 54 48 45 55 52 52 54 56 60 65 69 71 71 68 68 69 69 61 51 50 51 50 47 47 48 48 50 51 52 53 54 55
63 61 61 59 61 61 62 61 61 65 67 68 72 68 67 67 70 67 56 50 49 49 48 48 47 47 48 48 50 51 53 55 55
66 65 65 68 66 64 63 63 65 67 67 72 70 66 68 67 67 60 50 48 47 46 46 47 45 44 44 44 47 49 51 51 52
66 66 66 66 66 67 64 65 67 68 70 69 67 65 66 66 64 54 45 44 44 43 42 42 40 41 42 44 45 46 47 49 52
68 68 67 66 63 64 67 67 69 71 69 67 64 67 66 65 60 52 45 42 41 42 42 43 43 43 42 41 42 44 46 48 49
71 71 70 71 70 70 71 72 72 69 67 65 63 64 64 61 53 46 43 42 42 44 46 45 46 47 47 46 47 47 45 47 50
74 75 73 72 73 73 72 72 68 67 64 63 63 63 60 58 50 45 44 44 44 46 47 49 49 49 49 49 50 51 51 51 50
74 75 76 75 74 75 74 69 69 68 64 62 60 62 55 48 46 45 45 46 46 47 48 49 51 52 52 54 54 54 55 55 57
77 76 76 78 76 73 72 68 68 66 64 60 57 57 47 46 45 46 47 48 50 50 50 52 54 55 56 56 58 59 61 62 63
69 70 70 70 70 70 68 66 67 66 62 59 56 51 47 48 48 51 52 53 54 55 56 58 60 62 63 64 65 66 67 69 70
62 62 64 65 66 66 65 64 64 65 61 57 51 50 49 50 53 54 57 59 59 59 60 63 65 68 70 71 73 74 76 77 79
59 60 62 61 64 62 63 62 62 61 57 52 51 50 52 54 58 60 63 64 65 67 69 71 74 76 77 79 81 83 84 85 87
56 58 57 57 59 62 63 58 57 54 53 53 53 54 56 60 64 66 67 69 73 75 76 80 82 84 85 88 90 93 94 95 98
55 56 55 56 59 59 56 54 52 52 52 55 57 59 62 66 69 71 73 76 79 82 84 88 90 92 96 98 99 100 102 104 102
53 52 52 53 55 55 51 50 50 52 54 58 60 64 67 71 77 80 82 83 86 88 92 96 97 101 104 106 107 108 105 97 94
50 49 49 52 52 50 50 50 53 54 57 61 65 68 70 74 78 87 90 91 94 97 102 106 109 112 114 115 115 104 100 100 101
49 50 51 51 48 49 51 53 54 58 62 66 70 73 76 79 79 80 90 95 100 103 107 112 115 119 121 119 110 109 109 105 100

GFSFLT1_250_spd_048.txt.gz
Wind_Speed
54 54 52 50 52 52 51 51 53 55 55 55 56 50 54 58 62 67 70 71 69 69 68 68 61 53 49 49 47 44 45 49 52
58 56 55 53 54 52 50 53 52 48 52 52 51 56 60 60 66 68 70 68 66 67 66 63 55 52 50 50 49 46 46 46 46
60 59 57 57 56 57 55 46 48 55 56 56 58 59 60 64 67 70 69 65 64 66 66 60 52 49 49 49 48 46 47 48 48
64 63 62 61 59 61 61 58 61 63 63 63 59 60 63 66 69 66 64 64 63 64 65 56 50 47 45 45 46 47 46 46 48
66 66 65 65 66 64 65 66 65 64 65 64 64 63 65 66 68 67 64 66 62 64 62 54 46 44 41 39 39 41 42 43 45
67 67 67 68 68 66 64 66 67 69 67 64 64 65 67 70 69 66 64 63 60 62 59 51 44 43 40 38 37 35 35 36 39
72 73 72 71 72 71 69 68 68 69 65 66 68 69 71 72 66 63 62 62 61 60 54 48 44 42 40 40 40 39 38 39 39
75 75 77 77 75 75 75 73 70 71 71 70 70 71 70 68 67 67 62 60 59 58 49 45 44 44 42 42 42 42 41 41 42
78 79 79 80 81 81 81 79 77 75 75 72 73 73 70 69 67 67 61 58 54 51 45 44 45 44 42 42 42 42 43 44 45
80 80 79 80 81 80 78 77 76 75 74 75 75 72 69 68 66 65 61 56 48 47 44 45 45 45 45 45 46 46 48 49 50
77 78 77 78 77 76 77 77 75 73 76 74 73 70 69 67 66 63 58 53 49 48 47 46 49 50 50 50 50 51 52 53 55
73 75 76 75 76 75 75 75 72 71 71 71 70 68 66 67 64 61 57 55 52 51 51 52 53 55 57 56 55 55 56 57 59
67 69 72 72 72 73 74 70 66 66 67 68 66 67 67 68 62 59 57 55 52 54 56 57 60 60 61 61 63 64 65 66 67
58 60 63 64 67 69 69 68 68 68 67 63 63 65 67 64 57 57 57 56 55 58 60 63 65 66 67 69 71 73 74 75 77
58 57 56 57 61 62 64 65 66 64 61 62 62 65 63 59 58 57 58 58 59 63 66 68 70 72 74 77 79 80 79 82 85
60 57 56 56 57 56 59 62 60 60 61 61 61 59 57 56 57 60 61 61 65 69 71 74 78 80 83 83 85 85 87 91 93
60 58 56 57 56 58 58 56 57 59 61 59 57 56 55 57 60 63 64 67 71 74 77 80 82 84 85 87 89 91 94 98 99
60 58 57 58 57 56 54 53 56 58 57 58 57 56 56 60 64 66 69 73 77 80 83 85 87 88 89 91 94 97 98 102 105
59 58 58 57 56 55 56 56 57 58 57 57 57 57 59 62 66 74 77 79 83 86 90 93 95 96 96 97 100 101 103 107 111
59 57 58 57 56 56 57 57 57 58 58 57 57 61 64 66 68 73 81 85 89 91 95 100 103 104 105 107 108 109 112 115 118

GFSFLT1_250_spd_051.txt.gz
Wind_Speed
55 54 53 54 54 55 56 54 54 54 52 50 46 43 43 50 53 55 56 57 59 62 63 63 61 65 63 63 59 52 49 49 48
59 59 59 58 57 58 58 58 56 54 56 57 52 51 56 61 62 63 64 63 62 64 66 63 62 62 62 61 55 50 47 47 46
65 65 64 64 62 62 62 62 61 60 60 63 60 60 61 61 61 62 63 63 64 66 68 63 61 60 61 60 54 46 44 42 41
66 67 67 67 67 67 66 65 65 66 63 63 63 62 62 64 64 64 63 64 67 68 65 62 62 60 60 57 51 45 41 37 35
70 70 68 68 67 67 67 68 67 68 69 68 66 65 65 66 66 64 66 66 67 65 67 64 64 63 56 53 47 43 41 38 36
76 74 74 75 74 73 72 71 70 70 72 73 72 69 70 71 69 69 70 68 68 68 67 65 63 57 55 50 47 44 42 39 37
80 80 78 78 77 76 76 77 77 77 77 77 75 74 74 74 75 73 73 71 70 68 65 64 61 56 52 46 43 43 41 40 38
81 79 78 77 77 78 78 79 80 80 78 79 80 81 79 73 72 72 72 73 71 68 63 64 59 54 48 45 43 42 40 40 39
85 85 85 84 81 82 82 84 83 85 82 82 82 78 77 74 72 74 72 71 69 68 64 63 56 52 50 48 44 43 44 44 44
84 82 83 86 88 87 84 84 83 82 81 80 78 79 75 73 70 69 69 69 65 66 65 61 55 52 53 50 47 46 49 50 49
79 77 78 78 80 79 79 76 76 77 75 80 80 77 73 70 67 65 69 66 66 67 64 58 56 54 53 51 51 51 53 54 54
71 71 73 75 74 74 73 74 75 75 78 79 78 74 70 66 67 68 67 67 66 63 60 57 57 55 54 55 55 57 58 59 60
71 69 67 68 69 69 67 67 70 73 73 70 71 68 67 68 69 67 65 64 65 62 59 57 57 56 57 58 59 61 63 64 65
71 69 67 68 65 65 67 64 63 62 63 65 65 65 67 67 65 65 63 64 63 59 58 58 59 60 61 63 64 65 66 69 72
72 70 69 69 67 69 66 61 59 58 59 60 58 59 61 63 63 62 63 63 59 58 58 60 61 64 66 67 69 71 73 76 77
73 72 71 72 72 69 62 61 61 59 60 59 59 59 59 62 61 63 63 60 60 60 61 62 65 67 69 71 74 76 78 81 84
68 68 68 71 70 66 63 63 61 60 60 58 57 58 60 61 62 62 62 61 62 62 64 67 68 70 73 75 80 82 85 87 90
62 64 66 67 66 65 64 63 61 60 60 60 61 61 61 62 63 63 62 62 63 66 70 72 74 75 78 81 85 88 91 94 97
64 66 66 66 65 65 62 63 61 60 60 62 62 63 63 62 63 63 64 66 68 70 74 76 79 82 84 87 91 94 98 101 103
64 65 66 65 64 62 61 62 61 60 62 64 65 66 64 64 63 64 67 70 73 75 77 82 86 90 93 96 99 102 105 107 108

GFSFLT1_250_spd_054.txt.gz
Wind_Speed
57 56 56 55 55 55 54 55 55 56 57 58 56 55 53 54 55 55 55 58 59 58 59 61 61 60 61 57 58 60 60 61 57
61 61 61 60 59 59 58 59 59 60 61 61 60 60 59 59 59 60 59 59 59 60 62 64 62 62 58 59 59 61 62 58 54
65 64 64 65 64 63 64 64 65 66 66 65 65 64 63 62 62 63 65 64 63 64 66 66 65 63 61 60 59 59 60 56 50
69 70 69 69 69 69 68 67 66 66 66 66 66 67 66 65 67 68 69 69 70 71 69 69 68 67 64 62 59 57 59 55 46
74 74 74 74 73 73 72 71 71 71 70 70 71 70 70 70 72 70 72 71 72 73 74 70 68 67 65 63 58 58 55 51 44
79 78 78 78 78 78 78 78 76 77 77 77 75 75 74 75 76 74 74 74 74 76 72 70 68 67 65 63 59 57 53 48 45
82 81 82 82 81 80 80 79 79 77 75 77 76 77 77 77 81 79 79 78 79 74 71 67 66 65 64 61 57 56 53 48 43
84 85 87 86 84 83 82 84 82 81 80 80 80 82 83 82 84 83 77 76 73 73 70 68 65 62 60 61 59 56 53 50 45
85 85 85 87 87 86 84 84 85 84 85 84 87 85 86 85 80 80 77 74 73 71 67 66 64 62 62 61 58 54 53 52 49
82 83 85 89 88 86 84 82 81 82 83 84 84 81 80 80 75 76 75 73 72 68 66 64 62 64 64 60 57 54 52 53 53
80 80 80 79 80 80 80 79 76 75 75 75 75 74 76 74 69 74 73 69 68 66 65 64 64 63 63 60 58 55 54 55 54
75 75 77 78 78 76 73 73 70 69 69 71 73 70 67 68 69 66 68 68 66 66 65 65 64 62 62 61 58 56 56 56 57
72 73 74 76 76 76 76 73 72 68 66 68 67 66 63 59 61 61 62 65 65 65 63 63 63 62 63 61 58 58 58 58 60
73 74 75 77 77 75 75 75 73 72 72 69 65 65 60 61 60 61 62 62 62 62 62 60 61 63 63 61 60 60 61 61 63
70 69 71 73 76 77 77 76 77 76 73 69 67 64 63 63 61 61 62 61 59 60 60 61 63 65 63 63 63 63 64 65 67
63 62 64 67 70 73 75 77 77 76 75 71 69 66 64 64 62 63 62 62 61 59 61 62 63 63 65 65 66 67 69 71 72
62 64 66 69 68 71 74 73 73 76 71 69 67 63 63 64 63 63 62 61 61 62 64 66 66 66 66 67 69 71 74 77 78
61 63 65 66 67 67 69 71 76 69 68 67 63 61 62 62 64 65 64 63 63 64 66 68 69 68 69 71 74 76 78 81 83
57 60 63 67 69 68 68 69 70 69 67 66 64 60 61 63 64 66 66 67 67 68 71 72 72 72 73 75 77 81 83 87 90
58 57 58 64 70 69 68 68 69 69 69 66 63 62 63 64 64 67 69 69 72 72 75 76 77 77 79 81 84 89 90 95 99

GFSFLT1_250_spd_057.txt.gz
Wind_Speed
55 54 55 56 58 57 57 56 56 56 55 57 57 58 58 57 59 59 60 60 60 60 61 61 61 62 63 64 63 62 61 61 60
59 59 59 59 61 63 62 62 62 62 62 61 62 61 62 62 63 63 62 63 62 64 64 64 65 67 68 69 65 66 64 61 59
64 62 63 64 64 65 66 66 66 66 66 67 67 67 67 66 65 66 67 66 66 65 67 68 70 70 69 71 70 67 64 61 58
71 72 71 71 69 69 70 71 70 71 70 70 70 70 70 71 71 70 72 71 71 71 71 72 71 72 73 73 69 64 61 59 59
76 76 76 74 75 75 74 75 74 74 74 75 75 75 77 78 75 72 73 74 75 75 74 73 76 78 75 72 67 65 62 59 57
80 79 79 80 80 78 79 80 80 80 79 79 79 79 78 79 78 75 75 75 76 78 80 81 80 79 76 73 67 63 62 59 56
82 83 83 84 83 82 82 83 84 83 83 83 82 82 80 80 82 83 83 82 83 84 84 84 81 76 75 70 65 61 59 57 55
85 86 83 83 83 84 84 83 84 84 84 85 85 84 84 86 87 84 81 81 84 82 82 76 73 73 71 70 65 62 58 57 57
82 81 82 82 83 83 85 86 84 85 86 86 87 86 82 83 83 81 80 80 75 75 74 72 71 74 71 68 63 62 57 59 58
82 81 81 81 82 82 82 84 83 82 82 83 82 82 80 82 81 76 72 70 71 71 68 72 71 68 64 62 61 58 59 59 58
75 78 79 80 81 80 80 81 80 79 79 79 78 76 74 72 72 72 70 70 67 67 67 66 65 63 62 61 60 60 60 59 59
69 69 71 72 75 76 77 77 78 77 76 76 78 76 74 73 73 71 67 68 66 66 63 63 62 60 60 60 59 59 59 60 61
63 65 66 70 73 77 79 78 76 76 75 77 77 77 76 75 72 71 68 67 67 66 65 64 63 61 59 58 58 59 59 61 62
62 63 62 62 65 71 74 77 78 77 78 79 80 77 77 75 74 72 70 68 68 68 67 65 65 61 59 56 57 60 62 65 64
61 61 63 64 63 64 65 68 71 74 76 77 78 78 78 77 75 74 73 70 70 71 69 67 65 62 59 58 59 61 62 64 65
58 62 65 64 64 64 65 66 66 66 69 71 74 76 76 76 75 73 73 72 70 70 69 68 66 62 61 60 61 63 64 66 68
55 56 58 62 65 66 64 65 66 67 70 72 73 73 71 69 69 71 70 68 69 70 71 69 67 64 63 62 64 65 67 69 70
54 54 54 55 57 59 61 63 65 66 67 69 69 69 68 67 68 67 67 68 70 71 71 68 68 66 66 66 67 68 70 73 74
53 55 54 57 57 57 58 61 63 65 68 69 70 70 68 67 66 67 67 69 71 72 72 71 71 70 69 70 70 70 73 75 78
52 55 58 58 58 59 58 60 63 65 67 69 72 71 69 67 68 71 71 72 72 72 73 73 73 73 73 74 74 75 78 79 81

GFSFLT1_250_spd_060.txt.gz
Wind_Speed
53 53 53 55 56 56 56 57 57 58 58 59 59 60 60 61 62 63 63 64 65 64 65 65 64 62 63 63 66 66 66 64 66
58 59 60 61 61 62 62 62 61 62 63 65 65 65 65 65 65 66 67 67 67 67 66 67 69 69 68 69 68 67 70 68 71
65 64 63 65 65 64 65 66 66 66 67 67 68 70 70 71 70 71 71 72 71 71 71 71 69 70 73 72 70 70 74 76 74
70 68 69 71 72 71 72 72 73 72 73 73 74 75 75 76 76 76 77 77 76 75 74 74 74 75 75 75 76 79 79 79 77
75 76 75 75 76 77 77 77 77 76 76 76 77 79 79 80 80 81 81 81 81 79 77 78 79 81 82 80 80 78 78 78 73
79 79 80 80 80 81 81 81 81 81 81 80 81 82 82 83 83 83 83 84 87 83 84 82 83 83 81 81 81 80 77 70 67
82 83 83 84 83 84 85 85 85 84 85 85 85 85 85 85 85 86 86 85 86 87 83 84 83 84 83 81 76 71 68 69 69
82 83 84 84 85 87 86 85 86 87 85 83 84 85 85 85 86 87 86 86 86 86 85 83 82 83 76 71 68 66 69 68 63
81 82 82 80 80 81 80 81 82 82 81 80 81 82 83 85 84 84 83 83 83 81 79 77 70 70 69 69 65 67 64 61 58
79 79 79 77 77 78 79 82 83 83 82 81 80 81 80 81 81 80 79 77 77 76 74 72 69 69 67 66 66 63 60 58 54
75 73 72 71 70 70 71 73 74 75 76 77 76 77 78 78 78 78 76 74 74 73 72 73 70 69 68 65 64 64 61 59 56
70 68 67 66 67 68 69 70 71 72 73 75 76 76 77 78 77 77 76 75 75 75 74 72 70 70 68 67 66 65 63 61 56
65 64 64 65 65 66 66 67 69 69 68 69 71 73 76 80 80 79 79 79 78 78 76 75 74 72 71 70 67 67 65 62 59
64 64 65 67 66 68 67 67 67 67 65 65 66 68 69 72 76 78 79 79 79 77 77 76 75 75 74 72 71 70 67 64 60
61 61 62 62 62 64 65 65 66 67 66 66 67 67 67 69 71 73 74 74 74 74 74 75 75 75 75 74 73 72 69 66 61
60 61 62 61 60 62 63 64 65 66 67 67 67 67 68 68 70 72 73 71 73 74 74 74 73 72 72 72 73 72 69 67 64
59 57 58 58 60 61 61 63 63 63 63 65 68 70 68 67 70 70 71 70 69 71 72 71 70 70 71 72 74 74 72 70 69
59 60 61 60 61 63 63 60 57 59 61 60 62 65 67 67 69 71 73 71 71 72 71 69 69 70 71 73 74 75 75 73 73
61 61 60 59 57 60 56 58 61 63 62 60 60 62 63 65 66 69 70 73 74 73 71 70 71 71 72 73 73 75 75 76 76
60 61 63 62 63 58 59 61 62 63 64 62 62 61 62 63 64 68 70 73 75 76 76 74 74 74 74 74 75 75 76 78 80

GFSFLT1_250_spd_063.txt.gz
Wind_Speed
51 52 53 54 54 54 55 55 57 57 58 59 61 61 61 61 63 64 65 66 66 67 67 68 67 68 69 68 67 68 68 69 69
56 56 58 59 59 60 61 62 62 63 64 65 66 67 66 67 68 68 69 69 69 70 70 72 73 72 73 72 71 70 72 69 72
60 61 63 63 64 65 65 66 68 68 68 70 71 71 72 73 73 74 75 75 75 76 75 76 76 76 76 75 76 76 73 78 77
65 66 67 67 69 69 71 71 71 73 75 77 76 78 79 79 78 79 78 79 78 79 80 79 80 81 80 80 80 81 80 79 80
70 70 72 74 74 75 76 77 78 78 79 80 81 82 83 84 85 83 83 83 83 83 84 83 83 84 82 82 81 81 81 79 78
73 76 77 78 79 80 81 80 81 82 83 83 84 84 83 84 85 87 87 88 86 84 84 83 84 84 83 83 82 80 79 77 76
78 77 78 80 81 81 82 83 84 83 84 85 85 84 84 85 84 84 85 85 83 80 82 81 82 83 82 81 79 76 72 68 63
80 80 83 83 82 83 83 83 84 83 84 85 84 82 82 82 82 81 81 81 81 80 79 79 77 77 78 75 72 70 66 62 62
83 84 84 83 83 84 82 83 84 83 82 82 82 82 81 80 82 82 81 80 79 79 79 76 75 73 70 69 65 64 64 63 60
84 84 83 82 82 81 82 82 82 82 82 82 81 80 79 77 77 76 75 75 75 75 74 72 71 70 69 69 68 66 65 63 61
79 79 80 80 80 81 79 81 79 78 77 75 75 75 75 74 75 74 74 74 75 75 73 73 72 71 71 71 73 71 69 66 64
76 77 78 76 76 76 77 76 75 74 72 70 70 71 71 71 72 72 72 73 73 73 72 72 73 73 74 74 75 73 74 71 69
71 69 68 69 68 69 69 71 70 70 71 70 69 70 70 70 70 69 68 68 70 70 70 70 70 71 71 71 72 73 72 72 70
66 65 63 62 64 65 66 67 67 68 68 69 68 68 69 68 69 70 70 70 69 70 69 68 67 67 68 69 70 71 71 71 70
61 59 59 61 61 63 64 64 65 66 66 67 66 65 66 66 67 68 70 71 71 72 71 70 69 69 71 71 71 70 69 70 69
62 62 60 60 61 61 62 62 63 62 62 62 63 63 66 64 63 63 65 67 69 72 73 72 70 70 70 70 70 69 68 68 68
63 64 61 65 63 60 60 61 63 65 64 66 66 66 64 60 64 65 65 66 67 69 70 71 71 72 72 72 71 70 70 69 71
61 62 65 65 63 65 69 72 71 67 67 67 66 62 61 62 64 64 65 65 65 66 66 69 71 72 72 73 73 74 72 71 71
64 66 65 68 68 68 67 68 68 69 66 66 65 66 69 71 68 67 67 66 66 66 67 67 69 71 74 75 75 74 73 74 74
65 66 67 67 69 69 69 70 73 74 71 69 70 71 75 73 70 69 68 68 68 69 69 69 69 70 70 72 74 75 76 76 76

GFSFLT1_250_spd_066.txt.gz
Wind_Speed
44 46 47 48 50 52 54 54 56 57 58 60 61 62 63 64 65 66 67 67 69 69 69 69 68 69 70 71 72 73 72 71 69
48 49 52 52 54 56 57 59 61 63 63 64 65 67 67 69 70 70 71 73 74 74 75 76 77 77 77 77 76 76 76 76 76
53 54 55 55 57 59 61 63 64 66 68 69 69 71 73 73 74 75 76 77 78 79 80 81 82 82 81 80 80 80 79 79 78
56 58 60 62 63 66 67 67 69 73 73 74 75 76 77 78 79 78 79 80 81 81 81 80 80 80 82 82 82 81 77 77 76
66 68 69 70 73 72 72 73 73 75 75 75 78 79 79 81 81 82 84 83 81 81 81 81 81 78 79 79 77 75 74 73 75
73 73 73 75 77 77 77 77 76 78 79 80 81 81 82 82 82 82 82 82 82 81 80 78 78 78 76 74 74 74 73 72 69
76 76 78 80 80 80 78 78 82 82 82 83 82 82 81 82 81 81 81 82 80 79 80 80 78 78 78 77 74 74 70 67 65
78 80 81 80 81 82 82 83 84 84 84 82 84 82 82 81 82 82 82 83 83 81 79 78 77 75 74 73 71 71 67 66 62
83 83 83 83 84 86 84 82 85 85 84 83 82 80 80 80 79 80 79 78 78 77 75 73 73 72 71 70 68 68 67 65 63
84 83 83 84 84 86 85 84 82 81 82 82 81 80 79 77 77 76 76 75 73 72 71 71 71 71 71 69 69 68 69 68 66
79 81 80 80 79 81 82 79 79 80 79 77 77 74 75 74 71 71 70 69 69 69 69 69 69 69 68 66 66 66 66 65 66
77 77 78 76 77 77 78 79 75 73 73 69 69 68 67 68 69 67 68 69 69 68 68 68 67 67 67 65 65 64 64 64 64
71 72 74 77 76 74 69 69 68 67 63 61 61 62 61 61 61 62 64 64 65 64 65 66 68 68 68 66 66 66 66 65 65
74 75 74 72 72 69 67 64 61 62 61 61 63 63 62 61 60 62 61 62 62 63 65 65 65 65 66 67 68 68 67 67 67
75 74 73 71 68 67 65 63 61 59 59 58 57 56 57 58 60 62 62 62 63 63 62 63 65 66 65 64 65 66 67 68 69
75 72 68 66 66 64 65 63 63 61 62 63 62 62 62 61 63 64 63 61 59 59 60 62 63 66 66 65 64 64 66 67 69
72 69 68 67 67 67 68 64 64 63 64 65 67 69 69 66 64 63 63 59 60 62 64 64 62 62 62 63 64 64 64 65 67
70 67 66 66 69 69 68 66 67 70 70 70 69 69 68 67 66 65 66 66 65 67 67 67 65 62 61 62 63 66 67 67 66
65 65 65 69 73 72 73 71 70 70 72 72 74 73 73 75 74 73 70 71 71 72 73 70 67 65 66 64 63 65 65 66 68
74 73 71 74 72 72 71 69 72 74 74 75 79 81 78 77 76 75 76 76 76 76 76 73 71 71 69 70 71 69 69 69 69

GFSFLT1_250_spd_069.txt.gz
Wind_Speed
42 42 42 42 43 45 47 49 52 52 52 53 55 57 58 59 62 64 64 65 66 67 69 71 72 73 74 74 75 76 76 76 77
44 43 44 47 48 49 51 50 52 54 57 59 61 61 62 65 67 67 69 70 71 73 74 74 75 76 77 77 77 77 77 76 76
46 47 48 50 52 52 54 59 61 62 64 66 67 67 68 69 70 71 70 72 73 73 76 76 76 76 78 78 77 75 76 76 73
51 52 54 55 56 59 63 65 65 66 67 70 71 71 71 68 73 72 74 74 76 77 77 77 76 76 75 75 76 75 74 74 73
54 56 58 61 63 65 68 70 70 71 73 73 72 73 73 74 74 76 77 77 75 78 78 76 75 75 75 76 76 75 74 74 73
60 62 64 66 67 70 72 72 74 74 75 76 77 78 78 78 78 80 78 77 76 78 77 76 75 74 74 75 75 72 72 72 71
66 68 69 71 73 73 74 76 78 78 78 80 80 82 82 80 80 77 76 77 76 74 73 74 72 73 73 72 69 69 67 67 65
72 73 74 74 76 77 78 81 81 80 81 80 84 81 81 82 78 76 77 77 75 72 73 71 72 71 70 68 67 65 64 64 64
75 77 76 77 78 80 82 81 80 82 83 83 79 80 80 79 78 77 75 74 72 71 69 69 68 67 65 66 64 64 63 62 61
78 79 78 79 80 81 83 80 81 81 81 79 79 78 78 75 73 70 70 69 66 65 64 63 64 64 65 65 65 64 63 61 60
80 79 79 80 81 80 78 80 77 77 77 79 75 73 69 67 66 64 64 62 60 59 58 57 58 59 60 61 61 61 62 62 61
81 81 80 81 79 75 75 75 77 76 74 73 71 69 65 63 60 60 59 59 57 57 56 54 54 56 56 57 58 58 57 57 58
80 79 79 79 75 73 74 75 76 74 72 70 69 67 64 62 56 56 54 54 54 53 53 54 55 55 56 54 56 58 58 56 57
76 75 74 72 70 72 72 73 73 70 69 68 66 63 62 60 57 57 56 55 55 58 58 55 53 51 53 54 54 55 54 55 57
73 74 72 71 70 71 72 72 72 70 70 70 69 68 65 64 62 60 56 57 57 57 55 54 53 53 54 54 55 56 53 52 53
74 73 71 74 74 74 74 74 72 69 68 68 69 69 69 66 65 63 62 59 58 58 58 58 58 60 57 58 58 59 58 55 53
74 74 74 75 74 75 75 72 71 72 72 72 70 72 69 69 68 68 68 66 66 66 65 64 63 62 61 61 62 61 60 59 58
75 75 76 77 77 76 72 73 74 74 76 74 74 74 69 67 67 70 73 74 74 70 69 68 66 65 66 66 66 66 65 64 63
79 78 80 81 80 77 77 78 77 77 76 76 75 74 72 77 75 75 75 75 73 72 71 70 69 69 70 70 71 71 70 70 69
82 78 80 81 80 75 81 76 79 76 76 76 77 77 79 80 78 78 76 76 75 75 75 75 75 74 75 75 75 76 76 75 73

GFSFLT1_250_spd_072.txt.gz
Wind_Speed
41 43 42 43 41 41 40 41 44 45 46 46 49 53 57 58 59 60 63 63 64 65 65 66 67 69 69 71 72 73 74 74 73
43 43 43 43 44 43 45 44 45 48 51 54 57 60 61 62 64 65 64 64 66 66 68 68 68 71 73 73 74 75 75 72 70
46 46 45 44 46 48 49 50 52 54 55 58 62 64 64 66 66 66 68 70 71 70 72 72 73 74 74 72 73 72 74 71 69
49 50 50 50 50 51 52 55 58 60 60 64 65 66 68 70 71 72 72 72 76 76 75 75 76 74 73 73 71 70 69 70 68
51 52 52 52 55 57 59 61 63 66 68 68 70 69 71 72 73 74 75 77 77 77 77 76 74 72 70 70 69 67 67 67 68
54 55 57 58 60 62 63 65 68 71 71 71 72 74 75 75 75 76 76 76 77 77 77 75 74 72 71 71 69 68 67 66 65
57 59 60 62 65 66 67 70 72 74 76 75 77 76 76 75 77 78 77 75 77 76 76 73 71 68 67 67 66 63 64 61 61
62 63 65 67 68 70 72 74 75 76 77 77 75 76 75 77 76 76 77 77 75 71 68 67 66 65 61 61 60 59 59 59 58
69 69 69 71 74 75 76 78 78 78 79 76 76 75 76 75 76 77 75 72 68 65 63 61 62 58 57 56 56 54 52 53 54
72 72 74 76 76 79 78 79 80 78 77 76 72 72 73 74 75 73 70 67 65 63 62 59 59 57 56 53 51 51 50 50 51
75 75 76 77 80 81 80 80 80 77 75 73 72 73 73 74 71 67 65 65 63 60 58 55 52 52 53 50 50 50 50 50 48
77 80 80 81 78 82 80 78 75 75 73 71 74 74 74 71 68 62 62 62 62 61 57 55 53 52 52 54 52 50 48 49 48
80 81 80 81 81 79 78 76 74 74 73 74 73 73 72 65 64 62 63 64 63 58 55 53 53 55 54 51 51 51 50 50 49
81 80 80 78 77 76 77 74 75 74 73 72 73 71 69 66 64 65 64 63 63 63 59 58 56 54 54 54 55 57 57 56 54
80 79 79 77 77 77 75 74 73 73 72 72 73 73 71 71 68 69 68 67 68 62 59 59 59 58 60 61 61 60 59 57 56
78 78 76 78 75 73 72 72 73 74 74 75 76 74 76 71 70 69 70 70 67 63 62 67 68 67 66 64 62 61 58 57 57
76 76 78 76 76 75 75 73 76 78 77 78 80 78 78 74 74 72 69 68 68 68 72 72 70 68 64 64 61 60 60 61 61
73 77 78 78 75 77 76 78 80 79 80 79 78 75 79 79 75 73 73 72 73 74 72 74 69 71 69 67 66 66 66 67 67
74 76 76 78 76 78 79 81 84 81 80 80 82 79 78 77 74 72 72 74 73 74 73 75 76 76 72 70 72 73 73 73 72
76 77 78 80 83 82 85 84 83 83 82 85 79 80 80 77 74 75 77 77 75 76 76 77 79 80 82 76 78 80 79 77 76

GFSFLT1_250_spd_075.txt.gz
Wind_Speed
34 35 36 38 40 39 40 40 39 40 42 44 46 48 50 52 55 58 60 60 62 63 64 65 66 66 68 70 71 71 71 71 73
39 42 42 42 42 43 43 43 43 45 46 48 51 53 56 57 60 62 64 66 65 68 67 68 69 71 71 72 71 71 72 73 72
43 42 42 43 44 46 47 47 47 48 51 52 56 58 60 63 64 66 68 69 71 72 72 72 73 73 73 73 72 72 72 70 68
45 46 46 47 47 48 49 50 51 53 55 57 60 63 65 68 69 69 71 74 74 74 74 74 73 73 73 74 74 71 69 67 67
50 49 48 48 49 52 54 54 55 57 60 62 64 67 69 72 73 74 76 77 77 75 76 73 75 74 73 71 68 65 63 61 61
52 52 53 54 55 55 55 56 59 60 62 65 68 71 71 73 75 76 75 77 77 73 73 73 73 70 68 63 57 57 54 56 57
56 56 57 56 56 57 60 62 63 65 68 71 72 75 77 76 76 77 76 75 73 72 72 71 67 64 60 56 55 54 54 52 51
58 58 58 60 61 63 65 67 69 71 72 73 76 77 76 77 77 77 73 71 71 72 71 65 61 57 54 53 53 53 51 50 51
60 61 63 63 66 68 69 70 72 75 75 75 79 77 78 76 76 73 71 71 69 69 64 58 56 54 53 51 50 47 48 47 46
64 66 67 69 70 72 72 74 76 78 78 80 78 77 76 74 73 71 69 68 66 61 56 55 55 55 51 51 51 49 47 48 49
66 68 70 72 73 76 77 78 79 78 79 77 79 77 73 73 74 69 66 66 66 62 59 57 57 56 54 53 51 51 50 48 47
70 72 74 75 76 78 80 80 79 78 79 78 78 74 73 75 71 66 66 66 65 61 63 61 58 57 58 56 53 52 51 50 49
73 75 78 78 80 82 81 79 79 80 80 78 77 75 74 71 70 66 67 67 67 65 65 65 58 59 58 54 50 50 51 54 55
76 78 79 80 81 82 82 81 81 80 80 78 75 75 73 70 71 70 70 71 70 71 67 66 62 58 56 56 58 60 60 60 57
80 80 82 84 82 81 80 81 81 78 76 76 78 75 72 74 75 74 73 73 71 74 75 68 67 64 62 62 62 64 63 60 57
82 84 83 83 84 81 81 81 78 75 77 78 77 74 74 76 77 76 75 75 74 76 76 70 69 66 63 67 62 63 61 61 62
83 84 84 83 81 81 81 77 76 77 76 76 75 77 78 81 79 76 75 75 73 79 77 69 68 70 69 66 67 65 65 66 66
85 83 83 82 82 81 77 76 79 79 76 77 78 78 80 80 80 78 78 77 79 75 76 75 72 71 69 71 69 71 70 69 71
85 82 82 83 84 80 79 79 81 78 77 80 80 81 82 81 82 81 82 81 79 80 77 78 76 74 73 75 74 76 74 76 77
81 83 84 83 81 81 82 83 80 80 81 82 83 82 86 84 82 81 84 85 84 82 84 82 80 81 83 81 78 78 78 78 80

GFSFLT1_250_spd_078.txt.gz
Wind_Speed
29 30 30 31 31 35 36 38 39 42 43 44 44 43 45 47 50 52 55 58 61 65 67 68 69 72 73 73 71 70 69 67 69
32 33 33 34 37 39 38 40 42 44 46 45 46 47 49 52 53 56 59 62 66 69 71 71 71 70 71 71 71 69 69 69 68
38 38 39 40 41 42 44 46 47 47 47 48 50 51 54 56 58 60 63 66 68 71 71 72 72 73 73 70 70 68 67 67 65
42 42 43 45 46 46 47 47 48 49 50 51 52 54 56 59 62 64 66 68 70 72 74 74 73 71 69 68 67 66 65 60 54
45 45 47 47 48 50 51 52 52 54 54 54 56 58 60 63 65 68 69 72 73 73 75 73 73 70 66 67 64 62 58 51 48
50 50 50 50 52 54 55 55 57 57 57 58 61 62 65 68 70 71 72 74 76 76 72 73 68 65 65 64 59 54 49 46 46
52 52 52 53 54 54 56 57 58 60 61 62 65 67 70 71 73 73 75 76 78 72 69 68 65 64 61 58 53 49 46 45 45
53 53 54 54 55 57 57 59 62 65 66 68 70 72 74 75 75 77 77 77 75 69 68 65 61 61 58 55 52 48 45 44 46
56 55 55 56 57 58 61 63 65 67 70 72 74 75 77 77 80 78 78 75 72 69 64 62 62 58 56 54 53 50 48 48 47
58 58 59 59 60 63 64 66 69 71 74 75 76 77 79 79 80 80 75 73 70 66 64 62 62 58 56 57 58 54 50 49 45
61 61 62 62 64 67 68 70 72 73 75 77 79 81 81 81 80 81 75 73 69 66 64 62 63 59 60 61 61 54 51 48 47
64 65 66 66 68 71 72 73 75 76 79 81 83 84 83 82 78 79 76 71 69 67 65 66 64 62 62 64 64 60 54 51 50
69 69 70 71 71 73 75 76 79 81 84 85 87 85 84 81 77 74 75 72 70 70 67 68 66 63 64 65 66 66 61 53 51
69 71 72 74 76 78 79 81 83 84 86 86 87 84 82 76 76 75 73 73 74 71 72 70 68 68 67 68 70 68 64 62 54
74 75 76 78 81 82 85 86 87 89 87 86 83 82 80 76 76 76 73 71 72 73 73 72 70 70 71 73 70 70 66 67 61
78 78 79 84 86 86 88 89 88 87 87 84 80 80 78 75 77 75 74 74 74 72 74 75 73 73 72 72 72 72 68 65 66
81 83 86 85 87 89 91 92 90 89 86 83 82 79 75 77 78 75 77 76 76 77 76 78 74 77 75 78 75 73 72 67 69
86 88 89 88 89 91 92 91 89 87 85 83 80 77 75 77 77 78 79 78 79 81 81 78 81 80 80 79 80 78 72 69 72
91 91 89 91 93 92 90 88 86 85 85 84 83 82 78 78 78 81 83 84 81 81 84 87 85 85 83 83 88 83 77 78 79
93 90 92 94 92 89 87 88 85 83 85 86 86 86 85 83 83 82 86 85 83 84 88 90 90 93 89 89 80 82 80 85 84

GFSFLT1_250_spd_081.txt.gz
Wind_Speed
28 27 27 28 29 31 32 33 34 36 38 40 42 44 44 45 47 49 50 53 56 59 62 64 66 66 69 72 72 72 71 69 65
27 28 29 31 33 34 35 36 38 40 41 43 44 46 47 47 50 52 54 56 58 63 66 67 68 71 72 72 71 71 65 63 62
32 33 34 34 36 37 38 41 42 43 44 46 48 49 51 52 54 55 59 60 63 67 70 72 72 75 74 72 72 65 61 61 59
36 37 38 39 40 40 41 43 45 46 48 50 51 54 56 57 59 60 62 64 68 70 73 73 73 74 72 70 68 62 63 60 57
39 39 41 42 43 45 46 47 48 50 51 53 55 57 59 60 61 62 65 68 69 70 72 75 73 71 69 68 63 61 61 58 54
43 43 44 46 47 48 49 50 52 52 55 56 58 59 61 60 64 67 69 70 70 73 76 75 71 68 67 65 62 60 57 54 51
46 46 48 49 51 52 53 53 54 56 58 59 59 59 63 65 67 68 69 71 72 76 77 73 72 68 66 64 59 57 54 51 49
49 51 52 53 54 53 54 56 58 59 58 58 60 63 66 68 67 70 72 74 75 77 76 73 69 68 65 64 60 56 51 50 51
53 54 55 57 57 55 58 58 59 59 61 63 65 68 70 72 70 73 76 78 77 77 75 72 69 68 65 63 59 58 52 53 53
56 58 58 57 59 58 59 60 62 64 66 69 70 72 72 75 77 78 80 82 82 78 75 70 68 68 65 63 61 58 56 55 55
61 60 61 61 60 62 63 65 66 66 69 72 75 75 76 79 83 85 85 85 82 76 72 67 70 68 65 65 62 61 59 58 58
65 64 64 64 64 66 67 67 71 73 74 75 78 79 80 83 87 88 87 84 80 76 71 68 69 68 67 67 64 62 61 60 61
69 69 69 68 70 69 71 72 74 75 77 79 81 84 86 87 88 88 87 81 78 75 70 70 70 67 67 68 69 64 62 62 64
74 73 73 72 73 75 75 76 77 79 81 83 86 89 90 89 89 87 83 80 76 74 71 70 69 70 69 71 72 68 65 67 67
76 76 76 77 77 78 79 80 82 84 86 87 88 90 91 90 91 87 81 78 76 72 72 71 69 71 72 74 74 72 70 72 71
76 79 79 79 80 82 82 84 86 89 90 90 89 90 90 88 90 85 81 78 75 76 75 74 74 73 77 77 77 74 75 75 74
83 83 82 83 85 86 88 90 91 92 91 94 95 93 92 91 88 83 80 79 78 79 78 79 80 81 80 82 77 76 78 77 77
87 87 87 87 88 90 92 93 94 96 96 100 101 98 92 91 87 86 83 82 80 84 83 85 86 85 84 79 77 79 80 82 79
89 88 90 91 93 94 95 97 99 99 99 99 99 99 95 89 85 86 86 89 90 88 88 90 89 87 84 80 78 81 84 79 81
89 90 91 95 96 99 100 102 102 97 99 100 101 99 96 92 91 91 93 94 95 92 93 94 93 88 81 78 81 82 79 78 74

GFSFLT1_250_spd_084.txt.gz
Wind_Speed
26 27 27 26 25 25 26 27 29 30 32 35 37 39 42 43 46 49 51 53 55 56 57 60 63 64 65 71 72 73 72 68 69
26 26 25 26 27 27 28 30 34 35 36 38 40 42 44 47 49 52 54 55 55 56 58 62 64 64 67 70 71 72 69 67 66
27 27 28 29 30 31 33 36 37 38 40 42 43 45 47 50 53 55 54 55 57 60 61 63 65 67 70 72 71 70 66 67 66
29 30 31 32 33 35 37 38 39 41 43 46 48 50 52 53 54 54 56 57 60 61 63 66 68 70 72 71 71 67 64 65 61
34 33 33 36 38 39 40 41 43 46 47 49 50 51 53 55 56 56 58 61 64 65 66 69 72 75 74 73 69 65 63 62 58
35 36 38 39 40 40 41 44 46 49 50 51 52 54 55 57 59 61 64 65 67 68 71 73 77 79 75 72 68 64 64 60 59
38 39 39 41 42 45 47 50 52 53 52 52 54 57 58 62 64 65 67 68 68 70 73 77 81 80 76 71 69 62 62 61 59
42 41 42 44 47 49 51 52 54 54 55 57 58 62 63 65 66 69 71 72 72 74 77 81 82 80 72 69 66 62 62 61 61
45 45 47 47 49 51 52 54 55 55 58 60 63 64 66 67 69 72 73 74 76 78 81 85 84 77 71 68 65 61 62 62 61
49 49 49 51 53 55 58 59 59 60 63 65 66 69 72 73 73 74 76 78 81 82 85 86 83 76 71 67 65 60 62 61 61
54 53 54 54 57 60 61 62 64 64 66 68 70 73 76 78 79 80 80 82 84 87 88 85 81 75 71 67 64 62 63 62 62
57 57 57 59 60 64 65 67 68 68 70 73 74 76 79 81 83 85 86 88 90 90 86 86 80 72 70 67 65 67 66 64 64
62 61 62 63 65 68 69 71 72 73 74 75 76 80 83 85 87 89 91 93 93 90 92 84 77 74 70 65 67 69 68 67 68
66 66 67 68 70 72 74 74 73 77 79 79 81 83 85 87 89 92 93 92 91 92 87 86 80 75 70 69 71 73 71 71 71
70 71 72 73 75 77 78 80 81 82 84 85 85 87 89 90 92 94 93 93 91 91 92 85 79 75 72 74 73 75 74 75 73
74 75 76 77 79 79 81 82 84 87 88 86 88 89 90 94 96 95 95 95 95 93 92 83 80 80 79 80 80 79 78 76 76
81 82 81 82 83 83 83 86 89 88 89 89 90 90 95 98 99 98 96 96 96 92 89 85 83 82 83 82 83 82 81 80 79
84 84 85 85 84 86 88 89 88 90 92 94 94 96 97 102 104 102 100 100 92 91 88 86 85 83 84 86 87 87 84 84 81
88 90 89 88 88 90 91 90 91 93 95 97 99 100 102 102 101 100 101 96 92 91 87 87 86 88 89 91 90 90 89 86 86
90 89 91 91 92 91 92 93 93 95 96 98 101 104 106 110 103 98 93 93 93 89 88 91 93 96 97 98 97 94 95 87 87

GFSFLT1_250_spd_087.txt.gz
Wind_Speed
29 26 26 25 25 25 24 24 25 26 26 28 31 34 36 38 42 44 46 47 48 50 50 53 56 57 60 65 69 70 73 72 68
26 26 25 24 24 25 25 26 27 29 30 33 34 36 38 42 43 44 46 47 49 52 54 57 60 62 65 67 70 72 73 72 67
28 27 25 24 25 27 27 29 30 32 34 36 38 41 42 44 44 46 48 50 51 54 58 60 63 65 67 70 71 74 74 69 64
28 27 26 25 27 29 30 31 33 34 35 39 41 43 44 45 47 49 51 52 54 58 61 65 66 67 70 73 75 77 73 66 64
31 29 28 29 30 31 31 33 34 36 39 41 44 45 46 49 52 54 55 58 60 63 65 67 68 70 72 74 77 77 74 64 63
33 31 31 32 33 34 34 35 38 40 42 43 45 47 50 53 55 57 60 62 64 65 67 70 72 73 77 79 79 79 73 63 63
35 34 33 35 36 37 37 38 41 42 46 49 50 52 54 57 59 61 62 65 67 70 72 73 76 78 80 82 82 76 70 63 61
38 38 38 39 39 40 41 42 45 47 49 52 53 55 58 61 62 65 67 70 72 75 76 77 79 82 84 84 82 74 67 63 60
42 41 41 42 43 44 44 46 48 50 53 56 58 59 61 63 65 68 71 74 77 80 81 81 82 84 85 85 83 74 66 62 59
46 45 45 46 47 47 48 50 51 53 56 59 62 64 65 67 70 72 77 80 82 83 83 84 86 88 87 84 78 72 63 61 58
49 49 48 49 50 51 52 53 54 57 60 63 65 68 70 74 75 78 81 82 84 85 86 88 91 90 89 84 78 70 61 61 58
54 53 53 53 53 56 57 59 60 62 65 67 70 73 75 77 80 83 83 83 84 87 89 91 92 91 87 83 79 71 65 63 61
59 60 58 57 59 60 62 62 63 68 69 72 75 77 78 81 83 84 84 85 87 89 91 94 93 88 83 82 76 73 69 67 65
63 62 61 63 63 63 65 67 70 71 74 77 78 79 82 85 85 86 86 88 89 92 93 95 92 86 84 82 79 76 72 69 69
65 65 65 66 69 70 71 71 73 76 78 80 81 83 86 88 87 88 89 90 94 96 98 95 90 88 84 83 79 76 71 69 69
70 69 69 73 75 75 76 77 79 81 81 82 85 87 88 88 88 89 92 94 97 98 99 93 94 87 84 81 78 74 75 77 77
70 74 77 76 77 79 79 80 82 83 85 87 87 88 86 89 90 92 95 99 98 100 97 97 94 88 85 79 78 77 82 86 86
81 81 80 81 80 81 82 82 84 87 89 89 87 86 88 91 93 96 99 100 100 97 94 101 90 85 81 82 83 87 88 95 92
83 84 84 85 85 84 83 84 87 89 90 88 90 89 90 91 94 100 101 104 101 98 101 91 87 83 83 84 88 93 97 94 91
82 83 86 87 88 86 87 91 92 90 90 91 92 93 93 96 100 101 104 104 103 100 99 88 87 86 88 89 95 96 75 76 79

GFSFLT1_250_spd_090.txt.gz
Wind_Speed
34 32 31 30 26 24 24 23 22 22 23 24 25 27 29 31 33 36 37 39 42 45 46 49 51 54 59 61 64 67 71 73 76
32 33 29 27 25 24 24 23 23 22 24 26 26 29 32 34 36 36 39 42 45 47 49 52 55 57 62 66 68 71 73 75 77
30 29 27 27 26 24 25 25 24 25 26 26 27 31 34 35 37 40 43 45 48 50 52 55 59 63 67 68 72 73 76 78 79
29 28 28 28 27 27 27 26 26 28 29 29 31 33 36 38 41 44 45 48 51 54 57 60 63 67 70 73 72 75 78 81 79
27 29 29 28 29 29 29 28 29 31 30 32 35 37 39 41 44 47 48 51 55 57 62 64 68 71 73 75 76 78 81 82 73
29 28 28 28 30 32 31 31 33 33 33 36 39 40 42 44 47 50 53 55 59 62 64 68 70 73 75 77 79 82 84 79 67
30 30 30 30 32 33 34 35 35 36 37 39 42 43 44 47 50 53 56 59 62 66 69 72 74 76 77 79 82 85 86 75 64
35 35 35 34 35 36 36 38 39 41 41 43 44 46 48 52 54 59 61 63 67 71 72 75 77 78 80 82 84 85 82 72 67
41 40 40 39 39 40 39 40 42 44 47 47 47 49 52 56 60 64 67 70 73 75 76 77 78 79 82 85 88 87 81 70 67
45 44 43 43 44 45 43 44 46 48 50 52 53 55 57 60 64 68 72 73 76 78 78 78 79 81 84 88 89 82 79 70 69
49 48 47 49 50 48 48 49 51 52 53 55 57 59 62 65 68 71 73 75 78 79 78 80 81 82 87 90 88 80 75 71 70
53 52 52 52 51 51 54 54 55 55 56 57 59 63 65 69 71 74 77 79 79 78 80 81 84 87 90 90 88 83 74 69 71
59 57 56 55 55 56 58 58 59 59 60 61 65 66 71 72 75 78 81 82 80 79 82 83 87 92 92 93 85 84 76 72 70
63 61 60 60 61 62 63 63 62 63 63 68 70 72 74 77 79 82 82 81 79 84 84 87 92 96 96 96 87 84 79 74 69
64 62 64 64 65 65 65 65 67 66 69 73 73 77 78 81 82 84 81 81 85 86 89 93 96 99 98 95 88 85 77 75 71
67 64 65 65 66 64 65 69 68 71 75 76 77 81 82 83 85 83 85 86 88 91 94 99 100 100 97 95 90 87 76 77 76
70 69 68 69 68 69 73 73 75 79 79 79 81 83 84 85 85 84 87 90 93 96 100 101 101 99 98 95 92 85 78 78 77
76 75 75 75 75 77 77 78 81 81 82 83 83 82 84 87 87 89 91 94 96 100 102 101 100 101 100 95 93 85 82 82 86
73 75 75 76 76 79 82 83 83 85 87 85 83 84 82 84 85 90 94 99 102 105 102 103 101 102 97 97 90 86 84 88 90
84 83 80 82 83 86 87 87 87 88 86 83 86 86 89 88 91 92 96 100 104 104 104 105 105 98 96 95 88 86 90 91 79

GFSFLT1_250_spd_093.txt.gz
Wind_Speed
36 35 32 32 32 30 30 26 25 24 22 21 21 23 23 24 26 28 30 33 35 38 40 43 45 49 54 58 61 65 69 71 73
36 31 31 31 30 30 28 24 24 25 25 23 23 24 24 26 29 31 33 35 37 40 43 46 50 54 57 61 64 69 72 73 74
29 28 29 28 28 27 26 25 26 26 25 24 26 27 27 30 32 33 35 38 40 43 47 50 54 58 62 64 67 71 75 75 76
29 28 28 28 26 26 26 27 28 27 26 27 28 29 30 32 33 35 37 39 43 47 51 55 60 63 65 68 69 72 75 76 79
29 30 26 26 26 25 27 28 28 29 28 30 31 31 33 35 36 37 40 43 47 51 55 59 62 65 68 71 72 75 76 80 80
30 28 27 26 26 27 28 28 29 30 31 33 34 35 36 38 39 41 43 47 51 56 58 61 65 68 71 74 76 77 79 81 83
29 29 29 28 28 29 30 29 31 33 34 35 37 38 40 41 42 45 48 51 55 58 61 64 68 70 73 75 77 78 82 84 87
33 33 32 32 32 34 33 34 35 35 37 38 39 41 43 44 46 49 51 54 58 61 64 68 71 72 72 76 77 79 84 85 88
36 36 35 36 38 38 38 39 39 40 41 42 44 45 45 47 48 50 53 57 61 64 67 71 73 73 74 76 81 82 86 86 87
40 40 40 41 42 41 41 43 44 45 45 46 48 50 51 51 53 55 57 61 65 67 71 74 74 74 76 79 82 86 87 90 85
45 45 45 45 46 45 46 47 48 49 49 52 54 54 55 55 56 59 61 65 68 71 74 75 75 76 78 83 85 90 92 91 87
51 51 51 51 50 51 52 51 52 52 53 56 58 59 59 59 60 64 67 70 72 74 75 76 76 79 81 86 89 94 95 94 88
57 56 55 56 56 54 56 55 56 56 58 61 61 62 63 63 66 70 71 74 76 78 77 77 80 82 85 91 94 97 95 96 85
62 60 60 59 57 58 59 59 58 59 60 60 62 62 65 65 71 74 76 78 80 80 79 81 82 86 92 94 96 96 96 93 83
64 62 60 60 60 61 61 59 57 60 59 61 62 66 70 71 75 77 80 82 81 83 82 85 86 92 97 97 97 95 95 89 85
69 67 66 66 66 65 65 64 65 64 64 66 70 73 73 75 78 81 83 82 83 85 86 87 92 96 98 96 96 95 96 86 83
71 70 71 72 72 71 70 68 66 67 69 73 75 74 76 78 83 84 84 85 86 87 89 91 96 97 96 97 96 97 94 89 81
69 67 68 69 69 68 70 69 70 70 72 72 74 75 80 84 85 84 87 86 88 91 94 93 95 95 96 99 97 98 92 90 89
72 72 72 70 70 69 70 71 70 74 78 75 75 78 82 85 81 86 87 91 94 95 95 95 92 93 98 98 100 97 92 91 89
74 75 75 71 69 70 70 75 79 82 79 80 83 85 84 83 84 85 88 92 94 97 94 92 92 96 102 100 102 98 91 93 87

GFSFLT1_250_spd_096.txt.gz
Wind_Speed
35 33 34 34 33 34 32 29 27 26 25 23 23 25 24 24 23 24 26 26 28 30 34 37 42 45 49 53 56 60 64 66 70
35 34 33 33 32 31 31 28 27 25 25 24 25 27 26 25 26 28 30 29 30 33 36 41 46 48 52 56 59 62 66 68 73
35 34 32 31 29 28 28 27 26 25 25 25 26 28 28 28 29 30 32 32 34 36 40 44 48 52 55 59 62 65 67 72 75
34 32 30 29 27 26 28 27 27 26 27 28 28 29 29 29 31 33 34 35 37 40 44 47 51 54 58 62 65 67 70 74 79
33 31 29 29 27 26 28 29 29 27 28 28 30 30 31 31 34 35 36 38 41 43 46 49 52 56 60 64 66 69 73 77 80
33 32 30 30 28 28 28 29 30 28 28 30 31 33 34 35 37 37 39 40 41 44 48 51 56 59 63 67 68 71 74 78 81
34 32 32 31 29 29 30 31 30 30 31 31 32 35 36 38 39 40 41 43 45 48 51 55 59 63 67 69 70 74 75 79 82
35 33 33 33 31 33 33 33 33 34 36 35 37 39 40 42 43 45 46 47 49 51 55 59 62 66 70 71 73 76 77 82 83
36 36 35 35 36 37 37 36 37 38 38 39 41 44 45 45 47 49 50 51 52 56 60 62 66 69 73 74 74 78 80 84 85
39 38 38 38 39 39 40 41 42 42 42 43 45 47 49 50 52 53 55 56 57 59 63 66 70 72 74 76 77 80 83 86 88
43 43 42 43 43 44 44 46 47 47 47 49 50 51 53 53 56 57 58 59 60 62 66 69 72 75 75 77 80 83 85 88 91
49 48 47 48 48 48 49 50 51 51 53 54 54 55 56 57 57 56 59 60 63 66 69 72 75 77 79 81 84 86 89 92 92
55 54 54 54 54 54 54 55 56 58 58 57 58 60 59 56 59 57 60 63 67 69 71 74 77 79 80 82 87 88 92 94 94
60 60 59 59 59 59 60 61 60 60 60 60 60 57 59 64 63 62 65 68 70 72 74 77 79 81 82 84 88 91 94 95 93
63 63 64 65 64 63 65 64 62 61 61 64 64 65 67 68 66 67 69 70 71 75 75 78 83 85 86 87 91 95 92 94 98
66 68 67 67 67 69 68 67 66 67 69 69 69 70 70 69 71 72 71 72 75 77 78 81 85 88 87 93 98 94 94 90 95
67 66 66 68 69 70 70 69 70 70 67 65 67 68 69 72 75 75 76 76 78 77 83 86 89 90 95 97 97 93 94 95 91
66 68 66 65 66 67 67 67 67 66 66 66 67 68 75 77 74 78 80 81 80 82 85 90 92 95 99 97 95 92 96 94 96
60 65 70 73 73 73 72 71 71 70 71 70 69 73 73 79 82 82 86 86 84 86 90 94 97 99 97 96 92 93 92 94 93
64 64 70 72 75 76 74 74 74 74 75 77 74 76 76 79 82 84 85 84 88 89 95 98 101 101 95 93 93 92 92 93 93

GFSFLT1_250_spd_099.txt.gz
Wind_Speed
38 36 35 33 34 34 32 33 33 32 30 24 23 25 24 25 25 25 26 28 28 29 31 33 37 41 44 47 50 54 58 62 64
38 37 36 34 35 33 31 32 32 30 25 24 24 25 25 27 27 27 29 30 31 33 35 37 41 42 46 50 52 56 61 64 67
38 37 36 35 35 32 30 31 29 25 24 24 26 27 28 28 28 28 29 31 33 35 37 39 41 45 49 52 56 59 63 66 69
39 38 36 36 33 32 30 29 27 26 25 26 29 30 30 29 30 31 32 34 35 36 37 40 43 46 50 54 58 61 65 69 71
38 36 35 34 31 31 29 28 27 28 28 29 31 32 31 32 32 32 35 36 37 39 41 44 47 49 54 58 61 64 68 72 73
36 35 33 33 32 31 30 29 29 30 29 30 31 31 32 33 33 34 38 40 42 43 45 47 50 54 57 61 64 67 71 74 76
36 36 34 35 34 32 32 31 31 31 31 32 31 32 34 36 38 39 42 44 46 48 49 52 54 56 60 63 65 70 73 77 78
37 37 37 36 35 35 34 34 33 34 34 34 35 35 37 38 40 44 46 48 49 51 53 55 56 59 63 65 68 72 75 78 80
40 40 39 38 38 37 36 36 36 37 37 38 39 40 42 43 45 47 50 51 52 52 52 55 58 63 66 68 70 74 77 80 82
39 39 40 39 38 38 38 39 39 39 39 41 42 44 45 46 48 51 52 55 55 52 54 56 62 66 69 70 72 75 79 82 85
42 41 40 39 40 41 41 41 42 42 43 44 47 48 49 51 52 52 57 59 54 57 57 59 65 69 70 71 73 76 81 85 88
46 45 44 44 45 45 45 45 46 46 48 48 51 52 52 54 55 58 55 55 58 62 61 64 67 69 72 74 74 80 85 88 91
51 50 50 50 51 51 52 53 54 53 53 54 55 57 59 59 57 59 63 66 65 64 64 66 71 72 74 73 80 83 88 91 94
55 55 55 56 56 57 58 58 59 59 60 60 60 61 61 61 62 66 70 68 67 68 67 67 71 74 77 78 82 87 92 94 96
57 57 59 60 62 62 63 64 64 63 64 64 65 66 66 65 68 70 70 70 71 69 69 71 74 79 79 83 85 89 92 98 102
64 63 62 63 63 63 65 66 66 66 66 67 69 69 64 65 65 67 70 72 69 69 71 73 79 80 84 87 90 91 94 98 104
56 57 59 62 64 65 66 66 64 62 61 58 65 66 64 66 68 72 71 73 72 75 76 78 82 84 86 90 93 94 100 103 105
59 59 57 59 60 61 62 64 65 64 65 66 67 68 69 70 72 76 75 78 78 78 78 82 85 87 92 93 95 96 101 108 108
55 54 59 65 66 67 67 68 70 70 72 72 73 74 74 74 76 77 78 78 78 82 84 84 86 92 95 98 96 99 106 111 107
67 59 59 61 62 65 70 74 74 72 73 76 78 80 77 75 77 76 79 81 83 84 86 87 91 94 96 98 100 108 113 110 106

GFSFLT1_250_spd_102.txt.gz
Wind_Speed
38 36 35 33 35 34 34 35 34 34 31 31 29 24 23 24 24 25 27 28 29 31 31 33 35 36 38 42 45 48 51 55 59
38 37 34 36 38 38 34 35 34 35 31 30 25 24 23 25 26 27 29 30 31 32 34 35 36 39 43 46 49 52 55 59 62
38 37 36 38 39 37 35 35 34 34 32 28 25 24 25 28 29 30 31 32 33 33 35 37 40 43 45 48 52 55 58 60 64
38 39 39 38 40 38 36 35 34 33 31 27 25 26 28 29 31 31 31 33 34 36 39 41 44 46 49 51 54 57 60 63 66
39 40 39 40 40 38 37 34 33 32 30 28 28 29 29 29 30 31 33 35 37 39 42 43 47 48 51 52 56 58 62 65 66
40 39 39 40 39 38 36 34 32 33 31 30 31 30 30 31 31 33 36 38 41 42 44 48 49 50 49 52 56 61 64 66 68
41 39 40 40 40 38 35 34 35 35 33 32 32 33 33 34 34 36 38 41 43 45 48 50 52 49 51 53 59 63 66 68 70
39 39 38 39 39 38 37 37 37 36 36 36 35 35 34 36 37 40 42 44 46 49 50 53 51 49 56 57 61 65 68 69 71
39 38 37 39 40 39 38 38 39 38 37 38 38 37 37 39 40 42 45 46 49 49 54 51 48 55 59 62 64 67 69 70 72
40 39 38 39 41 41 41 40 40 39 39 39 40 39 40 42 44 45 47 48 53 55 52 54 59 61 64 67 66 69 70 71 73
44 41 40 41 42 41 41 41 41 40 40 41 42 43 43 45 48 49 51 54 55 56 56 61 64 65 66 67 68 70 72 73 76
48 46 44 43 42 42 42 42 42 43 43 44 46 48 50 51 53 54 56 58 59 61 63 65 66 67 66 68 70 72 76 76 79
52 51 48 48 47 47 47 47 48 50 50 52 54 55 56 56 58 58 60 61 63 64 65 66 66 66 67 71 73 75 76 79 85
55 54 53 52 52 52 52 53 54 55 56 58 59 60 61 61 61 62 63 64 64 64 63 64 64 68 70 72 77 80 82 84 88
58 58 56 56 57 56 56 58 60 61 60 62 63 65 65 65 65 65 66 65 62 62 67 67 68 69 71 76 76 81 86 91 95
55 58 60 60 60 60 59 63 62 62 64 63 64 65 65 63 64 63 63 63 65 68 69 71 72 73 76 77 79 83 85 91 96
54 55 59 63 67 69 48 55 55 58 60 64 66 69 69 63 65 65 68 71 70 72 72 73 75 75 76 82 83 87 89 91 91
52 57 61 61 61 61 61 62 62 64 69 71 74 73 72 71 72 72 73 75 73 75 78 77 72 75 78 78 83 85 87 89 95
46 52 55 58 63 65 68 72 67 71 72 75 74 74 74 74 77 78 78 77 74 74 73 73 75 76 75 79 81 88 92 96 101
63 57 57 61 62 66 66 70 72 73 74 74 74 74 74 74 75 74 73 75 76 79 77 77 79 79 81 86 90 93 97 102 107

GFSFLT1_250_spd_105.txt.gz
Wind_Speed
38 37 38 36 34 34 33 33 34 34 35 35 33 32 33 28 27 26 27 28 29 31 32 34 35 36 39 42 45 48 50 53 54
40 39 38 37 36 36 34 34 36 36 36 36 34 32 33 28 28 28 28 31 33 33 35 36 36 38 41 44 49 50 51 53 56
39 39 37 36 35 35 35 36 37 37 37 37 35 33 31 29 29 29 30 32 33 34 36 38 39 40 44 46 49 50 49 53 58
37 38 38 36 37 37 37 38 39 39 39 37 35 33 31 30 30 31 33 35 35 35 37 39 39 42 45 49 50 49 50 56 59
38 39 37 37 37 38 38 39 40 41 39 36 35 34 31 31 32 33 35 35 35 36 38 40 42 44 48 50 47 49 56 60 63
43 41 39 37 37 38 38 38 39 40 38 37 35 35 33 33 34 36 37 36 37 40 41 43 45 47 50 49 49 57 60 63 65
45 43 41 40 37 38 39 38 38 40 38 37 36 36 35 35 37 38 38 39 40 42 44 45 46 50 49 49 55 60 63 65 66
46 44 41 39 38 37 38 37 38 39 38 37 38 38 37 37 38 39 40 41 45 47 47 48 51 51 51 55 60 62 65 66 66
47 46 43 41 38 37 38 39 39 39 38 39 39 40 38 39 40 41 42 46 47 47 49 54 56 56 57 59 61 64 66 67 70
47 46 43 42 39 39 39 41 41 40 39 39 41 42 41 41 43 44 46 48 49 52 54 57 60 61 61 61 61 64 68 71 71
49 48 45 42 41 40 40 40 43 42 41 41 42 42 43 45 46 48 51 54 56 57 57 59 62 63 64 62 63 67 69 72 74
50 50 49 47 44 43 41 41 42 43 42 42 42 44 47 50 53 54 57 58 59 60 62 64 65 65 65 64 68 70 72 76 77
49 51 50 50 49 48 46 45 46 46 46 47 49 50 53 55 57 60 60 62 64 65 66 67 68 65 65 68 70 73 77 78 76
48 48 51 53 54 51 51 52 52 52 52 53 55 56 58 59 61 63 64 67 68 66 65 65 66 67 67 71 75 79 80 76 77
49 51 52 55 55 56 56 56 56 57 58 59 60 63 63 64 64 65 67 68 66 66 68 67 66 69 72 74 76 80 78 78 81
52 52 53 54 55 56 58 60 60 59 62 66 67 67 68 66 67 69 68 68 69 70 73 72 71 73 73 73 72 74 79 82 89
57 55 55 54 56 57 59 63 65 67 63 62 68 70 70 70 69 68 69 70 72 73 72 71 74 69 71 72 75 76 80 83 88
59 57 54 56 58 62 63 64 65 67 68 74 74 76 77 74 71 73 74 75 76 74 73 70 69 70 70 76 81 81 84 84 84
59 59 58 58 59 62 65 66 67 70 70 70 68 72 73 75 75 76 76 75 77 75 73 72 74 76 78 81 84 88 87 90 93
57 56 60 56 56 60 71 70 69 66 64 66 67 70 71 70 70 73 74 72 71 75 77 78 80 82 82 82 87 87 91 96 98

GFSFLT1_250_spd_108.txt.gz
Wind_Speed
40 40 38 37 35 33 35 32 32 33 34 35 36 37 37 38 37 34 32 31 30 32 33 36 36 36 37 39 40 45 48 50 47
43 40 41 39 37 37 35 35 34 35 35 36 36 38 37 38 37 34 32 31 32 34 37 37 37 37 39 39 43 47 48 46 50
40 39 38 38 37 37 36 35 33 35 36 37 37 39 40 39 36 34 32 32 34 36 38 38 37 39 40 41 44 47 48 48 54
39 38 39 40 36 37 37 35 35 36 38 37 38 40 40 38 37 34 34 34 36 36 38 40 41 43 43 42 46 47 47 52 56
42 40 38 36 35 36 36 36 36 37 38 38 39 39 39 37 37 36 36 35 35 38 40 41 44 45 46 46 48 50 53 57 60
44 42 40 40 39 37 37 36 36 36 36 38 39 39 38 36 37 37 37 37 38 40 41 43 46 48 48 50 53 54 58 60 63
46 44 44 44 42 42 40 38 35 36 37 38 39 39 38 37 39 39 39 39 40 43 45 46 49 48 50 53 56 58 61 63 66
47 46 46 45 43 42 41 39 38 37 37 38 40 39 39 40 41 41 41 42 43 45 47 49 51 53 56 57 58 61 63 65 67
46 47 46 47 45 43 42 39 38 37 39 40 40 41 40 41 42 44 44 44 46 48 50 52 55 58 59 60 63 66 66 66 67
45 46 45 46 45 44 42 41 39 39 41 42 44 44 43 44 44 45 46 46 48 51 53 57 61 60 62 65 65 65 64 68 69
44 45 46 46 46 46 45 43 41 41 42 44 46 48 46 46 45 47 47 49 51 55 58 61 63 64 65 65 66 66 66 71 73
45 45 45 47 48 48 46 46 45 44 44 45 46 49 49 48 48 50 52 53 56 59 62 64 67 66 65 66 67 68 71 73 72
46 46 45 46 48 49 49 48 49 48 48 47 48 49 51 53 55 56 57 59 60 62 65 66 68 69 69 70 69 72 70 72 70
54 53 52 50 49 49 50 51 51 52 52 52 54 55 57 58 61 61 62 64 65 65 67 68 70 69 71 73 73 75 74 69 69
50 50 52 52 51 50 49 52 55 55 57 57 57 59 61 63 65 63 68 69 68 68 68 67 66 69 73 76 73 73 73 74 77
56 51 48 49 52 51 53 55 55 58 59 59 58 58 62 61 61 66 67 64 66 71 72 71 73 73 74 72 73 73 75 77 81
57 57 58 54 52 53 54 56 57 61 62 63 64 65 64 69 68 69 69 72 71 66 69 73 71 73 73 70 71 78 81 83 87
65 65 64 60 59 58 59 59 60 64 63 66 67 69 70 71 71 70 72 68 66 67 65 68 68 70 75 76 80 83 84 89 90
67 68 70 68 64 63 64 63 63 65 68 66 66 67 69 73 72 71 72 71 69 70 70 72 75 76 82 84 86 87 89 92 90
74 73 66 67 68 67 66 63 65 69 71 69 71 72 72 72 75 73 72 72 71 74 77 80 80 83 85 86 85 86 88 92 92

GFSFLT1_250_spd_111.txt.gz
Wind_Speed
41 41 39 37 37 37 36 35 34 35 34 33 33 34 34 36 37 37 37 37 35 34 35 35 36 37 39 39 42 43 45 48 49
40 43 43 42 41 40 39 38 37 36 35 35 34 34 35 37 37 37 36 35 36 36 36 36 35 37 39 40 44 46 47 49 52
41 40 39 38 38 38 36 36 38 38 37 35 35 34 37 37 36 37 36 34 36 37 37 37 38 40 41 44 46 47 47 49 54
42 41 40 38 36 36 37 38 38 37 37 36 35 35 36 36 37 38 37 35 37 37 38 38 40 42 44 46 48 47 50 54 57
39 40 40 39 38 38 36 36 36 36 36 37 35 35 35 37 37 38 37 37 38 39 40 41 42 44 46 48 50 51 56 57 61
40 40 40 39 40 40 38 37 37 38 37 36 35 35 35 38 38 39 37 38 42 41 42 43 45 46 49 51 51 57 58 60 64
38 38 41 41 41 40 40 39 39 40 40 40 37 37 37 38 39 40 39 40 44 44 45 45 47 48 50 52 57 60 62 63 63
34 35 38 41 41 42 42 41 40 40 40 39 39 38 38 40 41 41 42 42 45 46 47 47 49 51 53 56 60 61 63 62 64
37 36 36 38 40 42 41 42 42 42 41 41 40 39 40 42 44 44 45 46 46 49 49 49 50 53 57 60 62 63 64 67 66
40 39 38 38 39 40 41 43 42 42 42 42 40 41 42 44 46 47 48 48 50 51 50 51 53 57 60 63 64 65 65 65 68
43 41 40 40 39 40 42 43 43 44 44 43 42 43 44 46 47 49 50 51 52 53 54 55 59 59 61 65 61 63 62 68 70
47 46 43 42 41 42 42 43 45 46 47 46 46 46 47 48 50 50 51 53 55 56 56 60 61 62 64 69 66 68 66 69 72
51 49 47 46 45 44 43 43 45 47 49 50 49 51 52 52 53 54 55 56 59 58 60 64 64 65 64 65 67 65 69 68 70
53 52 50 48 48 47 48 48 49 49 49 52 53 54 56 57 57 57 58 58 62 61 62 60 60 66 68 70 65 67 67 68 71
60 59 59 56 50 51 52 52 53 52 51 52 53 56 60 59 59 61 61 63 66 65 63 66 68 72 71 66 66 69 70 71 75
65 65 62 60 56 53 52 50 52 53 54 55 56 60 61 60 61 63 64 63 65 65 66 69 70 68 67 66 68 71 74 79 80
60 55 53 55 57 57 57 57 55 55 55 56 57 60 61 62 63 65 65 64 64 64 65 67 66 68 68 67 71 75 80 85 83
58 62 61 61 63 61 60 58 58 59 59 59 61 62 63 65 64 64 64 66 66 68 71 70 70 68 70 73 79 81 84 87 87
61 59 59 61 66 67 64 62 65 66 68 66 68 70 72 69 68 67 66 67 68 66 65 69 72 77 78 79 82 86 90 87 86
59 60 61 58 59 64 71 71 69 71 72 73 76 77 73 72 70 70 68 69 67 70 73 79 84 83 82 83 86 89 87 90 93

GFSFLT1_250_spd_117.txt.gz
Wind_Speed
47 38 40 35 36 31 33 34 34 34 35 36 37 36 35 34 32 31 30 29 29 30 32 32 32 32 33 36 37 39 40 40 40
47 39 34 35 34 31 31 33 35 35 34 33 33 32 33 34 33 32 31 30 30 31 33 32 33 33 35 37 39 39 40 41 40
40 41 33 33 34 34 32 33 34 31 32 31 31 31 32 32 32 33 31 31 32 33 33 34 35 36 37 39 40 41 40 40 43
39 35 32 30 32 31 33 34 32 32 31 31 30 31 31 31 33 34 34 34 34 36 35 35 36 37 38 40 40 42 41 42 45
36 32 29 30 31 32 33 33 32 31 31 30 30 32 33 33 33 33 33 33 34 35 36 36 37 40 40 41 43 43 44 45 46
37 34 34 33 30 30 31 33 34 32 33 31 31 32 32 32 33 33 33 34 35 35 36 37 39 40 42 43 44 44 46 46 47
41 40 36 36 30 29 27 30 32 30 31 31 31 31 31 31 33 34 33 34 34 36 37 38 40 43 43 44 45 46 47 49 50
46 43 40 35 31 30 29 28 29 29 29 30 30 31 31 31 32 32 33 34 35 36 37 38 40 43 44 45 45 46 50 51 54
46 42 39 35 36 33 32 31 31 33 33 32 31 32 32 31 32 32 34 35 37 37 38 39 40 42 44 47 49 49 52 54 53
48 40 39 39 41 38 34 33 35 36 37 36 34 33 34 35 34 35 36 38 38 39 39 40 42 43 47 49 52 53 52 53 52
44 40 41 39 39 38 36 36 36 38 39 40 38 37 35 35 39 39 40 41 42 41 41 41 43 44 46 49 51 53 54 53 53
44 44 40 40 39 39 39 39 40 44 43 42 41 39 40 41 42 44 44 44 45 45 44 43 44 47 45 49 56 57 54 53 56
48 43 41 43 40 43 46 48 49 49 48 47 45 44 44 43 43 45 47 48 48 48 47 47 47 48 48 52 58 57 55 55 58
57 52 47 46 47 53 55 55 55 54 53 50 47 46 42 45 46 52 53 53 51 50 49 53 52 49 52 59 61 61 58 57 57
49 49 48 52 54 57 58 56 55 57 53 49 46 45 50 53 55 54 55 55 53 54 53 55 55 56 60 62 64 60 59 57 58
56 58 59 56 59 58 59 62 63 56 48 48 49 57 61 61 58 57 57 57 56 57 57 58 59 62 63 67 65 59 60 61 65
62 65 68 64 61 61 61 63 59 52 52 59 59 63 62 59 58 58 57 58 59 59 59 61 62 63 67 66 53 56 59 70 81
54 53 57 62 64 60 56 57 58 65 66 71 67 63 61 61 59 60 61 62 61 61 62 61 63 64 62 56 59 65 74 81 83
42 49 53 54 58 64 68 67 69 70 69 65 64 61 60 63 60 60 59 58 59 61 61 64 63 64 66 61 63 75 78 80 85
59 61 55 55 53 65 65 65 64 64 63 67 66 64 63 62 61 61 61 64 65 64 67 71 67 70 70 70 77 84 82 84 89

GFSFLT1_250_spd_120.txt.gz
Wind_Speed
42 42 41 36 34 30 29 30 31 30 29 32 34 33 32 31 29 31 32 32 32 31 31 33 33 33 32 33 34 35 37 38 37
42 44 44 40 38 36 32 32 30 29 30 31 31 31 30 30 30 31 30 30 31 31 32 33 33 32 33 33 34 36 38 39 40
43 38 39 41 38 35 35 34 32 32 30 32 31 30 29 29 29 30 31 31 31 30 31 32 33 33 33 34 36 38 39 39 39
44 39 36 34 33 31 32 31 31 31 31 31 29 29 28 29 29 30 31 30 30 31 32 33 33 34 34 35 37 39 38 40 39
45 40 37 35 30 27 29 32 33 32 32 29 29 30 29 29 31 31 31 31 31 31 32 33 33 35 36 37 38 39 39 39 41
45 41 37 34 30 31 30 32 32 31 30 28 28 29 29 29 30 30 30 30 30 30 31 33 33 34 35 36 39 39 41 41 44
45 44 41 37 33 35 34 34 30 29 28 24 25 25 26 28 29 29 29 29 29 30 32 33 33 35 35 37 38 40 42 45 47
43 43 40 39 39 39 40 32 31 30 29 28 27 28 28 28 29 29 29 28 30 31 34 34 35 36 37 38 38 40 40 45 49
46 46 42 41 41 39 38 34 35 36 32 30 30 30 30 31 32 32 30 29 31 32 33 34 36 38 39 40 41 42 42 47 50
49 47 44 43 41 42 38 38 38 37 35 33 32 33 35 35 35 34 30 35 35 36 37 37 38 39 41 41 43 43 45 47 54
52 51 48 46 45 42 40 40 38 38 36 36 36 37 38 39 36 35 38 39 38 39 41 44 44 43 43 44 45 48 47 53 57
55 53 48 46 47 42 41 41 42 39 41 41 43 48 47 44 43 42 39 39 41 44 50 50 48 48 47 45 50 51 52 56 59
58 53 51 46 47 45 45 44 42 43 43 46 51 51 48 47 42 37 40 44 47 52 55 53 51 49 50 48 50 51 56 58 59
60 52 47 48 50 47 46 48 47 48 53 55 52 51 54 46 41 40 47 52 52 56 55 55 54 52 52 50 51 50 52 55 45
57 52 49 53 51 51 53 46 46 50 54 54 56 57 53 49 52 57 56 54 57 55 54 54 53 53 51 50 51 53 58 53 56
60 60 57 54 55 53 53 51 49 53 56 56 58 58 50 47 50 59 58 60 56 55 53 52 50 48 51 50 54 58 63 60 60
60 59 58 56 52 48 54 60 59 56 57 58 54 51 55 64 63 63 64 59 57 52 49 51 50 52 57 60 62 66 65 65 66
57 54 55 56 58 58 58 64 65 59 57 59 61 59 62 65 70 68 59 56 54 52 51 53 52 60 58 63 63 66 61 64 68
55 59 59 60 63 63 52 48 55 60 60 60 64 67 70 71 66 61 59 58 57 57 60 54 60 63 60 63 64 66 65 69 73
49 51 48 47 46 45 50 55 52 59 68 70 73 71 67 69 66 65 64 61 63 64 61 62 69 68 69 69 73 73 75 76 76

GFSFLT1_250_spd_123.txt.gz
Wind_Speed
41 39 38 36 38 38 36 34 30 33 33 30 29 30 30 29 30 29 27 27 26 28 30 28 29 30 31 32 31 32 34 37 37
46 41 39 39 39 40 39 35 34 34 33 34 33 32 30 30 29 27 27 27 28 28 29 30 30 31 32 32 33 34 35 36 38
51 48 44 42 39 34 33 30 31 36 34 34 31 30 30 29 28 28 28 28 29 29 29 30 30 31 32 32 32 32 34 35 36
50 48 45 43 36 31 30 29 29 31 32 32 33 31 30 28 28 29 29 29 30 30 29 29 30 31 31 32 32 33 34 34 37
48 48 46 44 39 32 30 29 27 27 28 31 31 29 27 26 26 27 29 29 29 28 28 27 30 32 32 33 32 33 34 33 34
45 45 43 41 38 35 31 29 29 30 32 31 27 26 24 22 22 24 26 25 27 27 26 27 29 31 32 35 35 35 35 36 36
47 44 42 40 36 36 33 32 34 33 34 30 28 26 27 25 23 25 26 28 27 26 26 27 29 30 32 36 38 39 39 40 38
50 46 44 40 38 35 32 33 36 36 36 31 29 31 30 27 28 27 29 30 29 26 28 32 32 33 38 40 41 43 41 42 41
53 49 45 43 40 36 35 34 35 35 34 34 34 33 31 30 28 32 33 32 30 31 36 36 35 38 45 44 45 42 42 41 45
52 49 46 44 42 40 38 36 37 36 36 35 37 34 33 31 33 37 41 37 35 36 37 36 37 43 47 46 46 43 42 44 45
59 52 48 45 45 44 42 39 39 39 38 38 37 36 35 36 36 41 39 40 37 32 39 40 43 49 49 49 47 44 44 44 44
64 60 58 52 49 47 45 42 41 42 42 41 40 38 41 37 43 42 41 41 33 39 45 47 50 50 50 48 45 42 41 41 44
64 63 59 55 52 49 48 46 46 43 42 42 42 41 45 45 46 45 49 44 42 47 48 47 51 51 49 45 38 36 39 46 49
65 65 62 60 56 53 50 45 46 44 46 44 48 47 46 48 50 51 46 45 45 48 54 54 50 49 43 41 38 42 46 47 48
60 61 63 62 59 55 50 45 47 47 45 46 48 46 46 49 50 46 45 42 44 53 55 56 51 45 42 40 42 45 45 47 51
54 57 59 60 58 54 52 50 50 49 51 54 52 51 54 49 50 51 44 52 51 58 58 55 50 44 44 45 49 49 53 52 55
52 54 56 57 60 55 55 53 54 53 54 55 56 58 57 50 55 53 54 55 56 59 60 54 54 51 50 53 50 55 60 58 58
56 56 56 54 53 58 59 60 57 56 55 56 58 61 63 61 54 56 58 60 61 61 58 60 56 54 54 52 57 59 61 56 64
52 51 48 52 55 57 57 55 54 58 60 64 64 60 61 61 60 61 62 63 62 58 63 61 59 59 53 55 57 62 59 61 65
44 45 48 50 59 60 56 57 58 62 64 59 55 62 63 64 64 64 64 64 63 64 60 58 65 54 59 66 69 61 69 61 63

GFSFLT1_250_spd_126.txt.gz
Wind_Speed
38 36 34 32 30 31 30 32 34 33 32 34 34 36 34 33 30 29 28 27 27 26 26 27 28 28 28 28 29 29 29 31 31
45 43 37 37 35 34 34 33 33 32 30 35 34 31 31 30 30 28 27 26 26 28 28 28 28 27 28 29 29 29 30 32 32
47 46 44 39 40 38 35 36 30 29 29 31 30 28 29 29 29 27 25 26 26 28 28 26 25 26 28 29 30 31 31 32 32
48 46 46 44 45 44 37 32 29 28 29 27 28 26 28 25 26 23 23 22 23 25 25 24 24 25 27 27 30 33 36 38 36
45 45 43 43 44 42 39 38 30 29 28 27 29 29 27 24 23 21 20 20 21 24 24 25 25 26 27 28 32 37 38 39 39
50 47 43 41 39 38 36 36 32 30 28 30 31 30 27 24 23 24 22 21 23 24 26 26 26 27 30 29 36 40 40 41 40
53 49 46 44 39 38 37 33 30 29 30 30 32 31 28 26 27 26 24 23 26 27 27 27 29 33 32 32 38 44 42 41 37
56 52 51 48 45 41 36 34 30 27 28 29 28 29 30 31 31 29 27 25 29 32 31 30 32 33 33 35 42 44 42 37 35
58 56 54 52 48 45 41 39 35 31 30 31 29 30 31 33 34 31 29 28 33 32 32 30 30 34 37 43 43 45 39 34 32
62 60 57 54 50 48 46 44 40 36 35 32 31 31 31 33 32 31 34 32 35 35 36 31 33 35 40 42 44 38 31 28 28
65 63 60 56 52 49 48 45 41 41 41 39 38 35 36 36 36 34 37 38 40 43 38 34 36 40 43 43 39 34 28 28 32
64 64 63 59 55 47 45 46 44 41 43 42 41 43 41 38 38 39 43 41 43 38 34 40 36 44 43 40 39 30 27 32 34
60 62 62 60 57 55 54 54 49 46 44 44 45 43 42 39 39 43 40 39 41 37 43 38 46 46 45 41 39 33 32 36 37
55 58 59 59 59 59 56 54 50 49 49 48 46 45 43 42 44 43 40 40 41 46 38 37 47 50 50 46 47 44 39 39 37
48 53 54 57 60 60 58 58 56 54 55 50 44 46 44 44 46 47 44 41 44 48 48 46 51 53 52 49 51 48 41 36 37
44 46 48 54 57 58 59 59 58 57 55 53 52 47 48 48 51 52 53 55 56 49 48 48 53 54 53 53 54 47 42 38 43
47 45 47 51 53 54 54 56 59 59 55 53 52 49 48 52 55 55 55 57 57 51 51 54 55 55 57 58 55 51 51 48 51
50 46 44 45 49 49 51 56 58 60 57 58 60 57 56 53 57 59 57 59 54 53 57 51 54 56 57 56 55 53 45 49 59
47 48 45 45 46 50 52 53 54 55 54 57 57 58 55 57 59 64 59 56 55 57 53 54 55 54 56 58 56 53 49 55 62
44 49 51 49 48 52 53 53 52 52 50 55 56 59 58 60 63 60 59 57 57 56 56 57 57 57 60 55 52 59 57 59 60